Wetterdaten: Donnerstag, 19.04.2012
Datum Zeit Temp. Innen Temp. Aussen UV X Diff Temp. Feuchte Inne Feuchte Auss Sonnenschein Luftdruck Regen ab 0,1 Wind Sonnenschein T Regendauer Windben
19.04.2012 00:00 15,6 C 10,1 C 0,0 UV-I 0,0 C 48 % 73 % 0 % 988,1 hPa 0,0 l/m 9,2 km/h (2 Bft) 0 min 0 min 24,5 km/h (4 Bft)
19.04.2012 00:02 15,7 C 10,3 C 0,0 UV-I 0,0 C 48 % 73 % 0 % 988,1 hPa 0,0 l/m 9,2 km/h (2 Bft) 0 min 0 min 24,5 km/h (4 Bft)
19.04.2012 00:04 15,6 C 10,4 C 0,0 UV-I 0,0 C 48 % 72 % 0 % 988,0 hPa 0,0 l/m 12,0 km/h (2 Bft) 0 min 0 min 17,3 km/h (3 Bft)
19.04.2012 00:06 15,7 C 10,5 C 0,0 UV-I 0,0 C 48 % 72 % 0 % 988,0 hPa 0,0 l/m 13,3 km/h (3 Bft) 0 min 0 min 21,3 km/h (4 Bft)
19.04.2012 00:08 15,7 C 10,4 C 0,0 UV-I 0,0 C 48 % 72 % 0 % 988,0 hPa 0,0 l/m 13,7 km/h (3 Bft) 0 min 0 min 21,3 km/h (4 Bft)
19.04.2012 00:10 15,6 C 10,5 C 0,0 UV-I 0,0 C 48 % 71 % 0 % 988,0 hPa 0,0 l/m 13,3 km/h (3 Bft) 0 min 0 min 14,1 km/h (3 Bft)
19.04.2012 00:12 15,7 C 10,5 C 0,0 UV-I 0,0 C 48 % 72 % 0 % 988,0 hPa 0,0 l/m 12,8 km/h (3 Bft) 0 min 0 min 10,0 km/h (2 Bft)
19.04.2012 00:14 15,7 C 10,5 C 0,0 UV-I 0,0 C 48 % 72 % 0 % 988,0 hPa 0,0 l/m 12,8 km/h (3 Bft) 0 min 2 min 13,7 km/h (3 Bft)
19.04.2012 00:16 15,6 C 10,6 C 0,0 UV-I 0,0 C 48 % 72 % 0 % 988,0 hPa 0,0 l/m 13,3 km/h (3 Bft) 0 min 2 min 28,5 km/h (4 Bft)
19.04.2012 00:18 15,6 C 10,5 C 0,0 UV-I 0,0 C 48 % 72 % 0 % 988,0 hPa 0,0 l/m 12,8 km/h (3 Bft) 0 min 2 min 30,1 km/h (5 Bft)
19.04.2012 00:20 15,6 C 10,4 C 0,0 UV-I 0,0 C 48 % 73 % 0 % 988,0 hPa 0,0 l/m 13,7 km/h (3 Bft) 0 min 2 min 30,9 km/h (5 Bft)
19.04.2012 00:22 15,6 C 10,4 C 0,0 UV-I 0,0 C 48 % 73 % 0 % 988,0 hPa 0,0 l/m 14,5 km/h (3 Bft) 0 min 0 min 30,9 km/h (5 Bft)
19.04.2012 00:24 15,8 C 10,3 C 0,0 UV-I 0,0 C 48 % 73 % 0 % 988,1 hPa 0,0 l/m 14,1 km/h (3 Bft) 0 min 0 min 18,9 km/h (3 Bft)
19.04.2012 00:26 15,8 C 10,3 C 0,0 UV-I 0,0 C 48 % 73 % 0 % 988,1 hPa 0,0 l/m 13,3 km/h (3 Bft) 0 min 0 min 18,9 km/h (3 Bft)
19.04.2012 00:28 15,8 C 10,3 C 0,0 UV-I 0,0 C 48 % 74 % 0 % 988,1 hPa 0,0 l/m 12,8 km/h (3 Bft) 0 min 0 min 30,9 km/h (5 Bft)
19.04.2012 00:30 15,8 C 10,2 C 0,0 UV-I 0,0 C 48 % 74 % 0 % 988,1 hPa 0,0 l/m 11,6 km/h (2 Bft) 0 min 0 min 21,3 km/h (4 Bft)
19.04.2012 00:32 15,8 C 10,1 C 0,0 UV-I 0,0 C 48 % 74 % 0 % 988,1 hPa 0,0 l/m 10,0 km/h (2 Bft) 0 min 0 min 15,7 km/h (3 Bft)
19.04.2012 00:34 15,8 C 10,1 C 0,0 UV-I 0,0 C 48 % 74 % 0 % 988,1 hPa 0,0 l/m 10,8 km/h (2 Bft) 0 min 0 min 18,1 km/h (3 Bft)
19.04.2012 00:36 15,8 C 10,1 C 0,0 UV-I 0,0 C 48 % 74 % 0 % 988,1 hPa 0,0 l/m 10,4 km/h (2 Bft) 0 min 0 min 18,1 km/h (3 Bft)
19.04.2012 00:38 15,8 C 10,0 C 0,0 UV-I 0,0 C 48 % 74 % 0 % 988,1 hPa 0,0 l/m 11,2 km/h (2 Bft) 0 min 0 min 18,1 km/h (3 Bft)
19.04.2012 00:40 15,8 C 10,1 C 0,0 UV-I 0,0 C 48 % 74 % 0 % 988,1 hPa 0,0 l/m 12,4 km/h (3 Bft) 0 min 0 min 18,1 km/h (3 Bft)
19.04.2012 00:42 15,8 C 10,1 C 0,0 UV-I 0,0 C 48 % 74 % 0 % 988,1 hPa 0,0 l/m 11,2 km/h (2 Bft) 0 min 0 min 12,0 km/h (2 Bft)
19.04.2012 00:44 15,8 C 10,1 C 0,0 UV-I 0,0 C 48 % 74 % 0 % 988,4 hPa 0,0 l/m 10,4 km/h (2 Bft) 0 min 0 min 5,2 km/h (1 Bft)
19.04.2012 00:46 15,8 C 10,1 C 0,0 UV-I 0,0 C 48 % 74 % 0 % 988,4 hPa 0,0 l/m 9,6 km/h (2 Bft) 0 min 0 min 8,8 km/h (2 Bft)
19.04.2012 00:48 15,6 C 10,1 C 0,0 UV-I 0,0 C 48 % 74 % 0 % 988,4 hPa 0,0 l/m 8,8 km/h (2 Bft) 0 min 0 min 42,6 km/h (6 Bft)
19.04.2012 00:50 15,6 C 10,2 C 0,0 UV-I 0,0 C 48 % 74 % 0 % 988,4 hPa 0,0 l/m 6,4 km/h (2 Bft) 0 min 0 min 16,1 km/h (3 Bft)
19.04.2012 00:52 15,6 C 10,2 C 0,0 UV-I 0,0 C 49 % 74 % 0 % 988,4 hPa 0,0 l/m 6,4 km/h (2 Bft) 0 min 0 min 29,7 km/h (5 Bft)
19.04.2012 00:54 15,6 C 10,1 C 0,0 UV-I 0,0 C 49 % 74 % 0 % 988,4 hPa 0,0 l/m 7,6 km/h (2 Bft) 0 min 0 min 29,7 km/h (5 Bft)
19.04.2012 00:56 15,6 C 10,2 C 0,0 UV-I 0,0 C 48 % 74 % 0 % 988,4 hPa 0,0 l/m 7,6 km/h (2 Bft) 0 min 0 min 14,9 km/h (3 Bft)
19.04.2012 00:58 15,6 C 10,1 C 0,0 UV-I 0,0 C 48 % 74 % 0 % 988,4 hPa 0,0 l/m 8,4 km/h (2 Bft) 0 min 0 min 16,1 km/h (3 Bft)
19.04.2012 01:00 15,7 C 10,1 C 0,0 UV-I 0,0 C 49 % 74 % 0 % 988,4 hPa 0,0 l/m 9,2 km/h (2 Bft) 0 min 0 min 16,1 km/h (3 Bft)
19.04.2012 01:02 15,7 C 10,1 C 0,0 UV-I 0,0 C 48 % 74 % 0 % 988,4 hPa 0,0 l/m 9,6 km/h (2 Bft) 0 min 0 min 8,4 km/h (2 Bft)
19.04.2012 01:04 15,7 C 10,1 C 0,0 UV-I 0,0 C 48 % 73 % 0 % 988,2 hPa 0,0 l/m 9,2 km/h (2 Bft) 0 min 0 min 16,1 km/h (3 Bft)
19.04.2012 01:06 15,7 C 10,1 C 0,0 UV-I 0,0 C 49 % 73 % 0 % 988,2 hPa 0,0 l/m 9,6 km/h (2 Bft) 0 min 0 min 16,1 km/h (3 Bft)
19.04.2012 01:08 15,7 C 10,1 C 0,0 UV-I 0,0 C 49 % 73 % 0 % 988,2 hPa 0,0 l/m 8,8 km/h (2 Bft) 0 min 0 min 14,1 km/h (3 Bft)
19.04.2012 01:10 15,7 C 10,1 C 0,0 UV-I 0,0 C 49 % 73 % 0 % 988,2 hPa 0,0 l/m 9,2 km/h (2 Bft) 0 min 0 min 14,1 km/h (3 Bft)
19.04.2012 01:12 15,6 C 10,1 C 0,0 UV-I 0,0 C 49 % 73 % 0 % 988,2 hPa 0,0 l/m 8,8 km/h (2 Bft) 0 min 0 min 13,7 km/h (3 Bft)
19.04.2012 01:14 15,7 C 10,1 C 0,0 UV-I 0,0 C 49 % 73 % 0 % 988,2 hPa 0,0 l/m 8,4 km/h (2 Bft) 0 min 0 min 18,5 km/h (3 Bft)
19.04.2012 01:16 15,6 C 10,1 C 0,0 UV-I 0,0 C 49 % 73 % 0 % 988,2 hPa 0,0 l/m 9,2 km/h (2 Bft) 0 min 0 min 18,5 km/h (3 Bft)
19.04.2012 01:18 15,6 C 10,1 C 0,0 UV-I 0,0 C 49 % 73 % 0 % 988,2 hPa 0,0 l/m 10,4 km/h (2 Bft) 0 min 0 min 24,9 km/h (4 Bft)
19.04.2012 01:20 15,6 C 10,1 C 0,0 UV-I 0,0 C 49 % 73 % 0 % 988,2 hPa 0,0 l/m 10,4 km/h (2 Bft) 0 min 0 min 24,9 km/h (4 Bft)
19.04.2012 01:22 15,7 C 10,1 C 0,0 UV-I 0,0 C 49 % 73 % 0 % 988,2 hPa 0,0 l/m 12,0 km/h (2 Bft) 0 min 0 min 13,7 km/h (3 Bft)
19.04.2012 01:24 15,6 C 10,1 C 0,0 UV-I 0,0 C 48 % 73 % 0 % 988,0 hPa 0,0 l/m 12,4 km/h (3 Bft) 0 min 0 min 12,4 km/h (3 Bft)
19.04.2012 01:26 15,6 C 10,1 C 0,0 UV-I 0,0 C 48 % 73 % 0 % 988,0 hPa 0,0 l/m 11,6 km/h (2 Bft) 0 min 0 min 14,5 km/h (3 Bft)
19.04.2012 01:28 15,6 C 10,1 C 0,0 UV-I 0,0 C 49 % 73 % 0 % 988,0 hPa 0,0 l/m 11,2 km/h (2 Bft) 0 min 0 min 34,9 km/h (5 Bft)
19.04.2012 01:30 15,7 C 10,1 C 0,0 UV-I 0,0 C 48 % 73 % 0 % 988,0 hPa 0,0 l/m 10,8 km/h (2 Bft) 0 min 0 min 34,9 km/h (5 Bft)
19.04.2012 01:32 15,6 C 10,1 C 0,0 UV-I 0,0 C 49 % 73 % 0 % 988,0 hPa 0,0 l/m 10,8 km/h (2 Bft) 0 min 0 min 22,1 km/h (4 Bft)
19.04.2012 01:34 15,6 C 10,1 C 0,0 UV-I 0,0 C 48 % 73 % 0 % 988,0 hPa 0,0 l/m 10,0 km/h (2 Bft) 0 min 0 min 22,1 km/h (4 Bft)
19.04.2012 01:36 15,6 C 10,1 C 0,0 UV-I 0,0 C 48 % 73 % 0 % 988,0 hPa 0,0 l/m 9,6 km/h (2 Bft) 0 min 0 min 15,3 km/h (3 Bft)
19.04.2012 01:38 15,6 C 10,1 C 0,0 UV-I 0,0 C 48 % 73 % 0 % 988,0 hPa 0,0 l/m 10,4 km/h (2 Bft) 0 min 0 min 17,7 km/h (3 Bft)
19.04.2012 01:40 15,6 C 10,1 C 0,0 UV-I 0,0 C 48 % 73 % 0 % 988,0 hPa 0,0 l/m 9,2 km/h (2 Bft) 0 min 0 min 17,7 km/h (3 Bft)
19.04.2012 01:42 15,6 C 10,1 C 0,0 UV-I 0,0 C 48 % 73 % 0 % 988,0 hPa 0,0 l/m 9,2 km/h (2 Bft) 0 min 0 min 9,2 km/h (2 Bft)
19.04.2012 01:44 15,6 C 10,1 C 0,0 UV-I 0,0 C 48 % 73 % 0 % 987,7 hPa 0,0 l/m 8,8 km/h (2 Bft) 0 min 0 min 21,7 km/h (4 Bft)
19.04.2012 01:46 15,6 C 10,1 C 0,0 UV-I 0,0 C 48 % 73 % 0 % 987,7 hPa 0,0 l/m 8,4 km/h (2 Bft) 0 min 0 min 21,7 km/h (4 Bft)
19.04.2012 01:48 15,6 C 10,1 C 0,0 UV-I 0,0 C 48 % 73 % 0 % 987,7 hPa 0,0 l/m 8,4 km/h (2 Bft) 0 min 0 min 14,9 km/h (3 Bft)
19.04.2012 01:50 15,6 C 10,1 C 0,0 UV-I 0,0 C 49 % 73 % 0 % 987,7 hPa 0,0 l/m 9,2 km/h (2 Bft) 0 min 0 min 14,5 km/h (3 Bft)
19.04.2012 01:52 15,6 C 10,1 C 0,0 UV-I 0,0 C 48 % 73 % 0 % 987,7 hPa 0,0 l/m 9,2 km/h (2 Bft) 0 min 0 min 17,3 km/h (3 Bft)
19.04.2012 01:54 15,6 C 10,1 C 0,0 UV-I 0,0 C 48 % 73 % 0 % 987,7 hPa 0,0 l/m 9,6 km/h (2 Bft) 0 min 0 min 17,3 km/h (3 Bft)
19.04.2012 01:56 15,6 C 10,1 C 0,0 UV-I 0,0 C 48 % 73 % 0 % 987,7 hPa 0,0 l/m 9,2 km/h (2 Bft) 0 min 0 min 9,6 km/h (2 Bft)
19.04.2012 01:58 15,6 C 10,1 C 0,0 UV-I 0,0 C 48 % 73 % 0 % 987,7 hPa 0,0 l/m 9,6 km/h (2 Bft) 0 min 0 min 8,4 km/h (2 Bft)
19.04.2012 02:00 15,6 C 10,1 C 0,0 UV-I 0,0 C 48 % 73 % 0 % 987,7 hPa 0,0 l/m 10,0 km/h (2 Bft) 0 min 0 min 25,3 km/h (4 Bft)
19.04.2012 02:02 15,6 C 10,1 C 0,0 UV-I 0,0 C 48 % 73 % 0 % 987,7 hPa 0,0 l/m 9,2 km/h (2 Bft) 0 min 0 min 25,3 km/h (4 Bft)
19.04.2012 02:04 15,6 C 10,1 C 0,0 UV-I 0,0 C 48 % 73 % 0 % 987,8 hPa 0,0 l/m 9,2 km/h (2 Bft) 0 min 0 min 20,5 km/h (4 Bft)
19.04.2012 02:06 15,6 C 10,1 C 0,0 UV-I 0,0 C 48 % 73 % 0 % 987,8 hPa 0,0 l/m 10,0 km/h (2 Bft) 0 min 0 min 20,5 km/h (4 Bft)
19.04.2012 02:08 15,6 C 10,3 C 0,0 UV-I 0,0 C 48 % 73 % 0 % 987,8 hPa 0,0 l/m 9,2 km/h (2 Bft) 0 min 0 min 10,8 km/h (2 Bft)
19.04.2012 02:10 15,6 C 10,2 C 0,0 UV-I 0,0 C 48 % 73 % 0 % 987,8 hPa 0,0 l/m 8,8 km/h (2 Bft) 0 min 0 min 16,1 km/h (3 Bft)
19.04.2012 02:12 15,6 C 10,2 C 0,0 UV-I 0,0 C 48 % 73 % 0 % 987,8 hPa 0,0 l/m 7,6 km/h (2 Bft) 0 min 0 min 16,1 km/h (3 Bft)
19.04.2012 02:14 15,6 C 10,2 C 0,0 UV-I 0,0 C 48 % 73 % 0 % 987,8 hPa 0,0 l/m 8,0 km/h (2 Bft) 0 min 0 min 13,7 km/h (3 Bft)
19.04.2012 02:16 15,6 C 10,3 C 0,0 UV-I 0,0 C 48 % 73 % 0 % 987,8 hPa 0,0 l/m 7,6 km/h (2 Bft) 0 min 0 min 13,7 km/h (3 Bft)
19.04.2012 02:18 15,6 C 10,2 C 0,0 UV-I 0,0 C 48 % 73 % 0 % 987,8 hPa 0,0 l/m 6,8 km/h (2 Bft) 0 min 0 min 13,7 km/h (3 Bft)
19.04.2012 02:20 15,6 C 10,2 C 0,0 UV-I 0,0 C 49 % 73 % 0 % 987,8 hPa 0,0 l/m 8,0 km/h (2 Bft) 0 min 0 min 17,7 km/h (3 Bft)
19.04.2012 02:22 15,6 C 10,2 C 0,0 UV-I 0,0 C 48 % 73 % 0 % 987,8 hPa 0,0 l/m 8,4 km/h (2 Bft) 0 min 0 min 17,7 km/h (3 Bft)
19.04.2012 02:24 15,6 C 10,3 C 0,0 UV-I 0,0 C 48 % 73 % 0 % 987,7 hPa 0,0 l/m 9,6 km/h (2 Bft) 0 min 0 min 16,5 km/h (3 Bft)
19.04.2012 02:26 15,6 C 10,3 C 0,0 UV-I 0,0 C 48 % 73 % 0 % 987,7 hPa 0,0 l/m 9,6 km/h (2 Bft) 0 min 0 min 19,3 km/h (3 Bft)
19.04.2012 02:28 15,6 C 10,3 C 0,0 UV-I 0,0 C 48 % 73 % 0 % 987,7 hPa 0,0 l/m 10,0 km/h (2 Bft) 0 min 0 min 19,3 km/h (3 Bft)
19.04.2012 02:30 15,6 C 10,3 C 0,0 UV-I 0,0 C 48 % 73 % 0 % 987,7 hPa 0,0 l/m 10,0 km/h (2 Bft) 0 min 0 min 16,1 km/h (3 Bft)
19.04.2012 02:32 15,6 C 10,3 C 0,0 UV-I 0,0 C 49 % 73 % 0 % 987,7 hPa 0,0 l/m 8,8 km/h (2 Bft) 0 min 0 min 6,8 km/h (2 Bft)
19.04.2012 02:34 15,6 C 10,2 C 0,0 UV-I 0,0 C 48 % 73 % 0 % 987,7 hPa 0,0 l/m 8,4 km/h (2 Bft) 0 min 0 min 15,3 km/h (3 Bft)
19.04.2012 02:36 15,6 C 10,2 C 0,0 UV-I 0,0 C 49 % 73 % 0 % 987,7 hPa 0,0 l/m 9,6 km/h (2 Bft) 0 min 0 min 24,1 km/h (4 Bft)
19.04.2012 02:38 15,6 C 10,2 C 0,0 UV-I 0,0 C 48 % 73 % 0 % 987,7 hPa 0,0 l/m 10,8 km/h (2 Bft) 0 min 0 min 24,1 km/h (4 Bft)
19.04.2012 02:40 15,6 C 10,2 C 0,0 UV-I 0,0 C 48 % 73 % 0 % 987,7 hPa 0,0 l/m 10,8 km/h (2 Bft) 0 min 0 min 18,9 km/h (3 Bft)
19.04.2012 02:42 15,6 C 10,2 C 0,0 UV-I 0,0 C 48 % 73 % 0 % 987,7 hPa 0,0 l/m 10,8 km/h (2 Bft) 0 min 0 min 9,6 km/h (2 Bft)
19.04.2012 02:44 15,6 C 10,2 C 0,0 UV-I 0,0 C 48 % 73 % 0 % 987,7 hPa 0,0 l/m 10,4 km/h (2 Bft) 0 min 0 min 9,2 km/h (2 Bft)
19.04.2012 02:46 15,6 C 10,1 C 0,0 UV-I 0,0 C 48 % 73 % 0 % 987,7 hPa 0,0 l/m 10,8 km/h (2 Bft) 0 min 0 min 30,9 km/h (5 Bft)
19.04.2012 02:48 15,6 C 10,1 C 0,0 UV-I 0,0 C 48 % 73 % 0 % 987,7 hPa 0,0 l/m 9,6 km/h (2 Bft) 0 min 0 min 30,9 km/h (5 Bft)
19.04.2012 02:50 15,6 C 10,1 C 0,0 UV-I 0,0 C 48 % 73 % 0 % 987,7 hPa 0,0 l/m 9,6 km/h (2 Bft) 0 min 0 min 11,2 km/h (2 Bft)
19.04.2012 02:52 15,6 C 10,1 C 0,0 UV-I 0,0 C 48 % 73 % 0 % 987,7 hPa 0,0 l/m 10,4 km/h (2 Bft) 0 min 0 min 13,3 km/h (3 Bft)
19.04.2012 02:54 15,6 C 10,1 C 0,0 UV-I 0,0 C 48 % 73 % 0 % 987,7 hPa 0,0 l/m 10,4 km/h (2 Bft) 0 min 0 min 13,3 km/h (3 Bft)
19.04.2012 02:56 15,6 C 10,1 C 0,0 UV-I 0,0 C 49 % 73 % 0 % 987,7 hPa 0,0 l/m 11,6 km/h (2 Bft) 0 min 0 min 16,9 km/h (3 Bft)
19.04.2012 02:58 15,6 C 10,1 C 0,0 UV-I 0,0 C 48 % 73 % 0 % 987,7 hPa 0,0 l/m 11,2 km/h (2 Bft) 0 min 0 min 28,5 km/h (4 Bft)
19.04.2012 03:00 15,6 C 10,1 C 0,0 UV-I 0,0 C 48 % 73 % 0 % 987,7 hPa 0,0 l/m 12,0 km/h (2 Bft) 0 min 0 min 28,5 km/h (4 Bft)
19.04.2012 03:02 15,6 C 10,1 C 0,0 UV-I 0,0 C 48 % 73 % 0 % 987,7 hPa 0,0 l/m 12,0 km/h (2 Bft) 0 min 0 min 24,1 km/h (4 Bft)
19.04.2012 03:04 15,6 C 10,1 C 0,0 UV-I 0,0 C 48 % 73 % 0 % 987,4 hPa 0,0 l/m 12,4 km/h (3 Bft) 0 min 0 min 16,9 km/h (3 Bft)
19.04.2012 03:06 15,6 C 10,1 C 0,0 UV-I 0,0 C 48 % 73 % 0 % 987,4 hPa 0,0 l/m 12,8 km/h (3 Bft) 0 min 0 min 16,9 km/h (3 Bft)
19.04.2012 03:08 15,6 C 10,1 C 0,0 UV-I 0,0 C 48 % 73 % 0 % 987,4 hPa 0,0 l/m 11,6 km/h (2 Bft) 0 min 0 min 8,4 km/h (2 Bft)
19.04.2012 03:10 15,6 C 10,0 C 0,0 UV-I 0,0 C 49 % 73 % 0 % 987,4 hPa 0,0 l/m 11,6 km/h (2 Bft) 0 min 0 min 12,0 km/h (2 Bft)
19.04.2012 03:12 15,6 C 10,0 C 0,0 UV-I 0,0 C 48 % 73 % 0 % 987,4 hPa 0,0 l/m 10,4 km/h (2 Bft) 0 min 0 min 12,0 km/h (2 Bft)
19.04.2012 03:14 15,6 C 10,0 C 0,0 UV-I 0,0 C 48 % 73 % 0 % 987,4 hPa 0,0 l/m 9,2 km/h (2 Bft) 0 min 0 min 17,7 km/h (3 Bft)
19.04.2012 03:16 15,6 C 10,0 C 0,0 UV-I 0,0 C 49 % 73 % 0 % 987,4 hPa 0,0 l/m 9,2 km/h (2 Bft) 0 min 0 min 17,7 km/h (3 Bft)
19.04.2012 03:18 15,6 C 10,0 C 0,0 UV-I 0,0 C 48 % 73 % 0 % 987,4 hPa 0,0 l/m 10,8 km/h (2 Bft) 0 min 0 min 21,7 km/h (4 Bft)
19.04.2012 03:20 15,6 C 10,1 C 0,0 UV-I 0,0 C 48 % 73 % 0 % 987,4 hPa 0,0 l/m 10,0 km/h (2 Bft) 0 min 0 min 21,7 km/h (4 Bft)
19.04.2012 03:22 15,6 C 10,0 C 0,0 UV-I 0,0 C 49 % 73 % 0 % 987,4 hPa 0,0 l/m 10,8 km/h (2 Bft) 0 min 0 min 20,1 km/h (4 Bft)
19.04.2012 03:24 15,6 C 10,0 C 0,0 UV-I 0,0 C 49 % 74 % 0 % 987,3 hPa 0,0 l/m 10,4 km/h (2 Bft) 0 min 0 min 20,1 km/h (4 Bft)
19.04.2012 03:26 15,6 C 10,0 C 0,0 UV-I 0,0 C 48 % 73 % 0 % 987,3 hPa 0,0 l/m 10,8 km/h (2 Bft) 0 min 0 min 14,1 km/h (3 Bft)
19.04.2012 03:28 15,6 C 10,0 C 0,0 UV-I 0,0 C 49 % 74 % 0 % 987,3 hPa 0,0 l/m 10,4 km/h (2 Bft) 0 min 0 min 14,5 km/h (3 Bft)
19.04.2012 03:30 15,6 C 9,9 C 0,0 UV-I 0,0 C 49 % 74 % 0 % 987,3 hPa 0,0 l/m 10,0 km/h (2 Bft) 0 min 0 min 14,5 km/h (3 Bft)
19.04.2012 03:32 15,6 C 10,0 C 0,0 UV-I 0,0 C 49 % 74 % 0 % 987,3 hPa 0,0 l/m 11,6 km/h (2 Bft) 0 min 0 min 36,1 km/h (5 Bft)
19.04.2012 03:34 15,6 C 10,0 C 0,0 UV-I 0,0 C 48 % 74 % 0 % 987,3 hPa 0,0 l/m 10,8 km/h (2 Bft) 0 min 0 min 36,1 km/h (5 Bft)
19.04.2012 03:36 15,6 C 9,9 C 0,0 UV-I 0,0 C 49 % 74 % 0 % 987,3 hPa 0,0 l/m 10,0 km/h (2 Bft) 0 min 0 min 10,4 km/h (2 Bft)
19.04.2012 03:38 15,6 C 9,9 C 0,0 UV-I 0,0 C 49 % 74 % 0 % 987,3 hPa 0,0 l/m 9,6 km/h (2 Bft) 0 min 0 min 16,1 km/h (3 Bft)
19.04.2012 03:40 15,6 C 9,9 C 0,0 UV-I 0,0 C 49 % 74 % 0 % 987,3 hPa 0,0 l/m 9,6 km/h (2 Bft) 0 min 0 min 16,1 km/h (3 Bft)
19.04.2012 03:42 15,6 C 9,9 C 0,0 UV-I 0,0 C 49 % 74 % 0 % 987,3 hPa 0,0 l/m 8,8 km/h (2 Bft) 0 min 0 min 17,3 km/h (3 Bft)
19.04.2012 03:44 15,6 C 9,9 C 0,0 UV-I 0,0 C 49 % 74 % 0 % 987,3 hPa 0,0 l/m 8,0 km/h (2 Bft) 0 min 0 min 18,9 km/h (3 Bft)
19.04.2012 03:46 15,6 C 9,9 C 0,0 UV-I 0,0 C 49 % 75 % 0 % 987,3 hPa 0,0 l/m 8,4 km/h (2 Bft) 0 min 0 min 18,9 km/h (3 Bft)
19.04.2012 03:48 15,6 C 9,8 C 0,0 UV-I 0,0 C 49 % 75 % 0 % 987,3 hPa 0,0 l/m 9,2 km/h (2 Bft) 0 min 0 min 16,9 km/h (3 Bft)
19.04.2012 03:50 15,6 C 9,8 C 0,0 UV-I 0,0 C 49 % 75 % 0 % 987,3 hPa 0,0 l/m 9,6 km/h (2 Bft) 0 min 0 min 21,7 km/h (4 Bft)
19.04.2012 03:52 15,6 C 9,9 C 0,0 UV-I 0,0 C 49 % 75 % 0 % 987,3 hPa 0,0 l/m 10,4 km/h (2 Bft) 0 min 0 min 9,2 km/h (2 Bft)
19.04.2012 03:54 15,6 C 9,9 C 0,0 UV-I 0,0 C 49 % 75 % 0 % 987,3 hPa 0,0 l/m 10,4 km/h (2 Bft) 0 min 0 min 13,3 km/h (3 Bft)
19.04.2012 03:56 15,6 C 9,9 C 0,0 UV-I 0,0 C 49 % 75 % 0 % 987,3 hPa 0,0 l/m 10,0 km/h (2 Bft) 0 min 0 min 13,7 km/h (3 Bft)
19.04.2012 03:58 15,6 C 9,9 C 0,0 UV-I 0,0 C 49 % 75 % 0 % 987,3 hPa 0,0 l/m 10,0 km/h (2 Bft) 0 min 0 min 13,7 km/h (3 Bft)
19.04.2012 04:00 15,6 C 9,9 C 0,0 UV-I 0,0 C 49 % 75 % 0 % 987,3 hPa 0,0 l/m 9,6 km/h (2 Bft) 0 min 0 min 12,8 km/h (3 Bft)
19.04.2012 04:02 15,6 C 9,9 C 0,0 UV-I 0,0 C 49 % 75 % 0 % 987,3 hPa 0,0 l/m 10,0 km/h (2 Bft) 0 min 0 min 19,7 km/h (3 Bft)
19.04.2012 04:04 15,6 C 9,9 C 0,0 UV-I 0,0 C 49 % 75 % 0 % 987,3 hPa 0,0 l/m 10,0 km/h (2 Bft) 0 min 0 min 14,1 km/h (3 Bft)
19.04.2012 04:06 15,6 C 9,9 C 0,0 UV-I 0,0 C 49 % 75 % 0 % 987,3 hPa 0,0 l/m 10,4 km/h (2 Bft) 0 min 0 min 14,1 km/h (3 Bft)
19.04.2012 04:08 15,6 C 9,9 C 0,0 UV-I 0,0 C 49 % 75 % 0 % 987,3 hPa 0,0 l/m 10,8 km/h (2 Bft) 0 min 0 min 16,1 km/h (3 Bft)
19.04.2012 04:10 15,6 C 9,9 C 0,0 UV-I 0,0 C 49 % 75 % 0 % 987,3 hPa 0,0 l/m 11,6 km/h (2 Bft) 0 min 0 min 16,1 km/h (3 Bft)
19.04.2012 04:12 15,6 C 9,9 C 0,0 UV-I 0,0 C 49 % 75 % 0 % 987,3 hPa 0,0 l/m 11,2 km/h (2 Bft) 0 min 0 min 14,9 km/h (3 Bft)
19.04.2012 04:14 15,6 C 9,9 C 0,0 UV-I 0,0 C 49 % 75 % 0 % 987,3 hPa 0,0 l/m 10,4 km/h (2 Bft) 0 min 0 min 14,9 km/h (3 Bft)
19.04.2012 04:16 15,6 C 9,9 C 0,0 UV-I 0,0 C 49 % 75 % 0 % 987,3 hPa 0,0 l/m 10,4 km/h (2 Bft) 0 min 0 min 14,9 km/h (3 Bft)
19.04.2012 04:18 15,4 C 9,8 C 0,0 UV-I 0,0 C 49 % 75 % 0 % 987,3 hPa 0,0 l/m 10,0 km/h (2 Bft) 0 min 0 min 14,9 km/h (3 Bft)
19.04.2012 04:20 15,6 C 9,8 C 0,0 UV-I 0,0 C 49 % 75 % 0 % 987,3 hPa 0,0 l/m 9,6 km/h (2 Bft) 0 min 0 min 9,2 km/h (2 Bft)
19.04.2012 04:22 15,6 C 9,9 C 0,0 UV-I 0,0 C 49 % 74 % 0 % 987,3 hPa 0,0 l/m 10,0 km/h (2 Bft) 0 min 0 min 24,5 km/h (4 Bft)
19.04.2012 04:24 15,4 C 9,9 C 0,0 UV-I 0,0 C 49 % 74 % 0 % 987,1 hPa 0,0 l/m 10,0 km/h (2 Bft) 0 min 0 min 24,5 km/h (4 Bft)
19.04.2012 04:26 15,4 C 9,9 C 0,0 UV-I 0,0 C 49 % 74 % 0 % 987,1 hPa 0,0 l/m 10,4 km/h (2 Bft) 0 min 0 min 11,2 km/h (2 Bft)
19.04.2012 04:28 15,4 C 9,9 C 0,0 UV-I 0,0 C 49 % 74 % 0 % 987,1 hPa 0,0 l/m 10,0 km/h (2 Bft) 0 min 0 min 11,2 km/h (2 Bft)
19.04.2012 04:30 15,6 C 9,9 C 0,0 UV-I 0,0 C 49 % 74 % 0 % 987,1 hPa 0,0 l/m 9,6 km/h (2 Bft) 0 min 0 min 13,7 km/h (3 Bft)
19.04.2012 04:32 15,4 C 10,0 C 0,0 UV-I 0,0 C 49 % 74 % 0 % 987,1 hPa 0,0 l/m 10,4 km/h (2 Bft) 0 min 0 min 19,3 km/h (3 Bft)
19.04.2012 04:34 15,4 C 10,0 C 0,0 UV-I 0,0 C 49 % 74 % 0 % 987,1 hPa 0,0 l/m 9,6 km/h (2 Bft) 0 min 0 min 27,7 km/h (4 Bft)
19.04.2012 04:36 15,4 C 10,0 C 0,0 UV-I 0,0 C 49 % 74 % 0 % 987,1 hPa 0,0 l/m 10,0 km/h (2 Bft) 0 min 0 min 27,7 km/h (4 Bft)
19.04.2012 04:38 15,4 C 10,1 C 0,0 UV-I 0,0 C 49 % 74 % 0 % 987,1 hPa 0,0 l/m 11,2 km/h (2 Bft) 0 min 0 min 25,3 km/h (4 Bft)
19.04.2012 04:40 15,4 C 10,0 C 0,0 UV-I 0,0 C 49 % 74 % 0 % 987,1 hPa 0,0 l/m 12,8 km/h (3 Bft) 0 min 0 min 28,5 km/h (4 Bft)
19.04.2012 04:42 15,5 C 10,0 C 0,0 UV-I 0,0 C 49 % 74 % 0 % 987,1 hPa 0,0 l/m 12,0 km/h (2 Bft) 0 min 0 min 28,5 km/h (4 Bft)
19.04.2012 04:44 15,4 C 10,0 C 0,0 UV-I 0,0 C 49 % 74 % 0 % 987,0 hPa 0,0 l/m 12,4 km/h (3 Bft) 0 min 0 min 12,0 km/h (2 Bft)
19.04.2012 04:46 15,4 C 10,1 C 0,0 UV-I 0,0 C 49 % 74 % 0 % 987,0 hPa 0,0 l/m 11,6 km/h (2 Bft) 0 min 0 min 9,6 km/h (2 Bft)
19.04.2012 04:48 15,4 C 10,1 C 0,0 UV-I 0,0 C 49 % 74 % 0 % 987,0 hPa 0,0 l/m 11,6 km/h (2 Bft) 0 min 0 min 15,7 km/h (3 Bft)
19.04.2012 04:50 15,4 C 10,1 C 0,0 UV-I 0,0 C 49 % 73 % 0 % 987,0 hPa 0,0 l/m 10,8 km/h (2 Bft) 0 min 0 min 15,7 km/h (3 Bft)
19.04.2012 04:52 15,4 C 10,1 C 0,0 UV-I 0,0 C 49 % 73 % 0 % 987,0 hPa 0,0 l/m 9,2 km/h (2 Bft) 0 min 0 min 12,8 km/h (3 Bft)
19.04.2012 04:54 15,5 C 10,1 C 0,0 UV-I 0,0 C 49 % 73 % 0 % 987,0 hPa 0,0 l/m 9,6 km/h (2 Bft) 0 min 0 min 25,7 km/h (4 Bft)
19.04.2012 04:56 15,4 C 10,1 C 0,0 UV-I 0,0 C 49 % 73 % 0 % 987,0 hPa 0,0 l/m 10,0 km/h (2 Bft) 0 min 0 min 25,7 km/h (4 Bft)
19.04.2012 04:58 15,4 C 10,1 C 0,0 UV-I 0,0 C 49 % 73 % 0 % 987,0 hPa 0,0 l/m 10,8 km/h (2 Bft) 0 min 0 min 15,3 km/h (3 Bft)
19.04.2012 05:00 15,4 C 10,1 C 0,0 UV-I 0,0 C 49 % 73 % 0 % 987,0 hPa 0,0 l/m 11,2 km/h (2 Bft) 0 min 0 min 15,3 km/h (3 Bft)
19.04.2012 05:02 15,4 C 10,2 C 0,0 UV-I 0,0 C 49 % 73 % 0 % 987,0 hPa 0,0 l/m 12,8 km/h (3 Bft) 0 min 0 min 17,7 km/h (3 Bft)
19.04.2012 05:04 15,4 C 10,2 C 0,0 UV-I 0,0 C 49 % 73 % 0 % 987,1 hPa 0,0 l/m 13,7 km/h (3 Bft) 0 min 0 min 9,6 km/h (2 Bft)
19.04.2012 05:06 15,6 C 10,2 C 0,0 UV-I 0,0 C 49 % 73 % 0 % 987,1 hPa 0,0 l/m 13,3 km/h (3 Bft) 0 min 0 min 12,4 km/h (3 Bft)
19.04.2012 05:08 15,6 C 10,2 C 0,0 UV-I 0,0 C 49 % 73 % 0 % 987,1 hPa 0,0 l/m 12,4 km/h (3 Bft) 0 min 0 min 21,3 km/h (4 Bft)
19.04.2012 05:10 15,4 C 10,1 C 0,0 UV-I 0,0 C 49 % 73 % 0 % 987,1 hPa 0,0 l/m 12,0 km/h (2 Bft) 0 min 0 min 31,3 km/h (5 Bft)
19.04.2012 05:12 15,4 C 10,1 C 0,0 UV-I 0,0 C 49 % 73 % 0 % 987,1 hPa 0,0 l/m 11,2 km/h (2 Bft) 0 min 0 min 31,3 km/h (5 Bft)
19.04.2012 05:14 15,6 C 10,1 C 0,0 UV-I 0,0 C 49 % 73 % 0 % 987,1 hPa 0,0 l/m 10,8 km/h (2 Bft) 0 min 0 min 18,5 km/h (3 Bft)
19.04.2012 05:16 15,6 C 10,1 C 0,0 UV-I 0,0 C 49 % 73 % 0 % 987,1 hPa 0,0 l/m 11,6 km/h (2 Bft) 0 min 0 min 24,9 km/h (4 Bft)
19.04.2012 05:18 15,4 C 10,1 C 0,0 UV-I 0,0 C 49 % 73 % 0 % 987,1 hPa 0,0 l/m 12,0 km/h (2 Bft) 0 min 0 min 24,9 km/h (4 Bft)
19.04.2012 05:20 15,6 C 10,1 C 0,0 UV-I 0,0 C 49 % 73 % 0 % 987,1 hPa 0,0 l/m 12,8 km/h (3 Bft) 0 min 0 min 23,3 km/h (4 Bft)
19.04.2012 05:22 15,6 C 10,1 C 0,0 UV-I 0,0 C 49 % 73 % 0 % 987,1 hPa 0,0 l/m 12,4 km/h (3 Bft) 0 min 0 min 25,7 km/h (4 Bft)
19.04.2012 05:24 15,6 C 10,1 C 0,0 UV-I 0,0 C 49 % 73 % 0 % 987,0 hPa 0,0 l/m 12,8 km/h (3 Bft) 0 min 0 min 25,7 km/h (4 Bft)
19.04.2012 05:26 15,6 C 10,1 C 0,0 UV-I 0,0 C 49 % 73 % 0 % 987,0 hPa 0,0 l/m 12,8 km/h (3 Bft) 0 min 0 min 22,1 km/h (4 Bft)
19.04.2012 05:28 15,6 C 10,1 C 0,0 UV-I 0,0 C 49 % 73 % 0 % 987,0 hPa 0,0 l/m 12,8 km/h (3 Bft) 0 min 0 min 21,3 km/h (4 Bft)
19.04.2012 05:30 15,6 C 10,1 C 0,0 UV-I 0,0 C 49 % 73 % 0 % 987,0 hPa 0,0 l/m 12,4 km/h (3 Bft) 0 min 0 min 21,3 km/h (4 Bft)
19.04.2012 05:32 15,6 C 10,1 C 0,0 UV-I 0,0 C 49 % 73 % 0 % 987,0 hPa 0,0 l/m 11,2 km/h (2 Bft) 0 min 0 min 17,3 km/h (3 Bft)
19.04.2012 05:34 15,6 C 10,1 C 0,0 UV-I 0,0 C 49 % 73 % 0 % 987,0 hPa 0,0 l/m 11,6 km/h (2 Bft) 0 min 0 min 20,5 km/h (4 Bft)
19.04.2012 05:36 15,6 C 10,1 C 0,0 UV-I 0,0 C 49 % 73 % 0 % 987,0 hPa 0,0 l/m 10,4 km/h (2 Bft) 0 min 0 min 20,5 km/h (4 Bft)
19.04.2012 05:38 15,6 C 10,1 C 0,0 UV-I 0,0 C 49 % 73 % 0 % 987,0 hPa 0,0 l/m 9,6 km/h (2 Bft) 0 min 0 min 7,2 km/h (2 Bft)
19.04.2012 05:40 15,6 C 10,1 C 0,0 UV-I 0,0 C 49 % 73 % 0 % 987,0 hPa 0,0 l/m 8,0 km/h (2 Bft) 0 min 2 min 7,2 km/h (2 Bft)
19.04.2012 05:42 15,6 C 10,1 C 0,0 UV-I 0,0 C 49 % 74 % 0 % 987,0 hPa 0,0 l/m 7,6 km/h (2 Bft) 0 min 2 min 12,0 km/h (2 Bft)
19.04.2012 05:44 15,6 C 10,0 C 0,0 UV-I 0,0 C 49 % 74 % 0 % 987,4 hPa 0,0 l/m 8,0 km/h (2 Bft) 0 min 2 min 13,7 km/h (3 Bft)
19.04.2012 05:46 15,6 C 9,9 C 0,0 UV-I 0,0 C 49 % 75 % 0 % 987,4 hPa 0,0 l/m 7,6 km/h (2 Bft) 0 min 2 min 13,7 km/h (3 Bft)
19.04.2012 05:48 15,6 C 9,7 C 0,0 UV-I 0,0 C 49 % 75 % 0 % 987,4 hPa 0,0 l/m 9,2 km/h (2 Bft) 0 min 2 min 17,3 km/h (3 Bft)
19.04.2012 05:50 15,6 C 9,7 C 0,0 UV-I 0,0 C 49 % 77 % 0 % 987,4 hPa 0,1 l/m 9,2 km/h (2 Bft) 0 min 2 min 17,3 km/h (3 Bft)
19.04.2012 05:52 15,6 C 9,5 C 0,0 UV-I 0,0 C 49 % 76 % 0 % 987,4 hPa 0,0 l/m 8,4 km/h (2 Bft) 0 min 2 min 9,2 km/h (2 Bft)
19.04.2012 05:54 15,6 C 9,3 C 0,0 UV-I 0,0 C 49 % 77 % 0 % 987,4 hPa 0,0 l/m 8,4 km/h (2 Bft) 0 min 2 min 22,5 km/h (4 Bft)
19.04.2012 05:56 15,6 C 9,3 C 0,0 UV-I 0,0 C 49 % 78 % 0 % 987,4 hPa 0,0 l/m 7,6 km/h (2 Bft) 0 min 0 min 22,5 km/h (4 Bft)
19.04.2012 05:58 15,6 C 9,0 C 0,0 UV-I 0,0 C 49 % 78 % 0 % 987,4 hPa 0,0 l/m 7,2 km/h (2 Bft) 0 min 0 min 10,4 km/h (2 Bft)
19.04.2012 06:00 15,6 C 9,0 C 0,0 UV-I 0,0 C 49 % 79 % 0 % 987,4 hPa 0,0 l/m 6,0 km/h (2 Bft) 0 min 0 min 14,5 km/h (3 Bft)
19.04.2012 06:02 15,6 C 8,9 C 0,0 UV-I 0,0 C 50 % 79 % 0 % 987,4 hPa 0,0 l/m 5,6 km/h (1 Bft) 0 min 0 min 14,5 km/h (3 Bft)
19.04.2012 06:04 15,6 C 8,8 C 0,0 UV-I 0,0 C 50 % 80 % 0 % 987,6 hPa 0,0 l/m 5,6 km/h (1 Bft) 0 min 0 min 6,4 km/h (2 Bft)
19.04.2012 06:06 15,6 C 8,8 C 0,0 UV-I 0,0 C 50 % 81 % 0 % 987,6 hPa 0,0 l/m 5,2 km/h (1 Bft) 0 min 0 min 8,8 km/h (2 Bft)
19.04.2012 06:08 15,6 C 8,7 C 0,0 UV-I 0,0 C 50 % 80 % 0 % 987,6 hPa 0,0 l/m 5,2 km/h (1 Bft) 0 min 0 min 8,8 km/h (2 Bft)
19.04.2012 06:10 15,6 C 8,7 C 0,0 UV-I 0,0 C 50 % 81 % 0 % 987,6 hPa 0,0 l/m 4,8 km/h (1 Bft) 0 min 2 min 5,6 km/h (1 Bft)
19.04.2012 06:12 15,6 C 8,7 C 0,0 UV-I 0,0 C 50 % 81 % 0 % 987,6 hPa 0,0 l/m 4,4 km/h (1 Bft) 0 min 2 min 6,0 km/h (2 Bft)
19.04.2012 06:14 15,6 C 8,7 C 0,0 UV-I 0,0 C 50 % 81 % 0 % 987,6 hPa 0,0 l/m 4,0 km/h (1 Bft) 0 min 0 min 6,0 km/h (2 Bft)
19.04.2012 06:16 15,6 C 8,7 C 0,0 UV-I 0,0 C 50 % 82 % 0 % 987,6 hPa 0,0 l/m 4,0 km/h (1 Bft) 0 min 0 min 6,0 km/h (2 Bft)
19.04.2012 06:18 15,6 C 8,7 C 0,0 UV-I 0,0 C 50 % 82 % 0 % 987,6 hPa 0,1 l/m 4,0 km/h (1 Bft) 0 min 2 min 16,1 km/h (3 Bft)
19.04.2012 06:20 15,4 C 8,6 C 0,0 UV-I 0,0 C 50 % 83 % 0 % 987,6 hPa 0,0 l/m 4,8 km/h (1 Bft) 0 min 2 min 16,1 km/h (3 Bft)
19.04.2012 06:22 15,4 C 8,5 C 0,0 UV-I 0,0 C 50 % 83 % 0 % 987,6 hPa 0,0 l/m 4,8 km/h (1 Bft) 0 min 0 min 14,1 km/h (3 Bft)
19.04.2012 06:24 15,4 C 8,5 C 0,0 UV-I 0,0 C 50 % 83 % 0 % 987,7 hPa 0,0 l/m 4,8 km/h (1 Bft) 0 min 0 min 6,8 km/h (2 Bft)
19.04.2012 06:26 15,4 C 8,5 C 0,0 UV-I 0,0 C 50 % 83 % 0 % 987,7 hPa 0,0 l/m 5,2 km/h (1 Bft) 0 min 0 min 8,4 km/h (2 Bft)
19.04.2012 06:28 15,4 C 8,4 C 0,0 UV-I 0,0 C 50 % 83 % 0 % 987,7 hPa 0,0 l/m 5,2 km/h (1 Bft) 0 min 0 min 9,6 km/h (2 Bft)
19.04.2012 06:30 15,5 C 8,4 C 0,0 UV-I 0,0 C 50 % 83 % 0 % 987,7 hPa 0,0 l/m 4,8 km/h (1 Bft) 0 min 0 min 13,3 km/h (3 Bft)
19.04.2012 06:32 15,5 C 8,5 C 0,0 UV-I 0,0 C 50 % 83 % 0 % 987,7 hPa 0,0 l/m 5,2 km/h (1 Bft) 0 min 2 min 13,3 km/h (3 Bft)
19.04.2012 06:34 15,5 C 8,5 C 0,0 UV-I 0,0 C 50 % 84 % 0 % 987,7 hPa 0,0 l/m 5,2 km/h (1 Bft) 0 min 0 min 11,6 km/h (2 Bft)
19.04.2012 06:36 15,5 C 8,4 C 0,0 UV-I 0,0 C 51 % 84 % 0 % 987,7 hPa 0,0 l/m 5,6 km/h (1 Bft) 0 min 0 min 11,6 km/h (2 Bft)
19.04.2012 06:38 15,5 C 8,4 C 0,0 UV-I 0,0 C 51 % 84 % 0 % 987,7 hPa 0,0 l/m 5,2 km/h (1 Bft) 0 min 0 min 5,6 km/h (1 Bft)
19.04.2012 06:40 15,5 C 8,4 C 0,0 UV-I 0,0 C 51 % 84 % 0 % 987,7 hPa 0,0 l/m 5,6 km/h (1 Bft) 0 min 0 min 5,6 km/h (1 Bft)
19.04.2012 06:42 15,5 C 8,4 C 0,0 UV-I 0,0 C 51 % 84 % 0 % 987,7 hPa 0,0 l/m 5,2 km/h (1 Bft) 0 min 0 min 6,0 km/h (2 Bft)
19.04.2012 06:44 15,5 C 8,3 C 0,0 UV-I 0,0 C 51 % 84 % 0 % 987,9 hPa 0,0 l/m 6,0 km/h (2 Bft) 0 min 0 min 6,8 km/h (2 Bft)
19.04.2012 06:46 15,3 C 8,4 C 0,0 UV-I 0,0 C 51 % 84 % 0 % 987,9 hPa 0,0 l/m 6,0 km/h (2 Bft) 0 min 0 min 13,3 km/h (3 Bft)
19.04.2012 06:48 15,5 C 8,4 C 0,0 UV-I 0,0 C 51 % 84 % 0 % 987,9 hPa 0,0 l/m 6,0 km/h (2 Bft) 0 min 0 min 13,3 km/h (3 Bft)
19.04.2012 06:50 15,5 C 8,4 C 0,0 UV-I 0,0 C 51 % 84 % 0 % 987,9 hPa 0,0 l/m 5,6 km/h (1 Bft) 0 min 2 min 5,2 km/h (1 Bft)
19.04.2012 06:52 15,3 C 8,4 C 0,0 UV-I 0,0 C 51 % 84 % 0 % 987,9 hPa 0,0 l/m 6,0 km/h (2 Bft) 0 min 2 min 17,3 km/h (3 Bft)
19.04.2012 06:54 15,3 C 8,3 C 0,0 UV-I 0,0 C 51 % 84 % 0 % 987,9 hPa 0,0 l/m 6,4 km/h (2 Bft) 0 min 2 min 17,3 km/h (3 Bft)
19.04.2012 06:56 15,3 C 8,3 C 0,0 UV-I 0,0 C 51 % 84 % 0 % 987,9 hPa 0,0 l/m 6,0 km/h (2 Bft) 0 min 2 min 11,2 km/h (2 Bft)
19.04.2012 06:58 15,3 C 8,3 C 0,0 UV-I 0,0 C 51 % 84 % 0 % 987,9 hPa 0,0 l/m 5,2 km/h (1 Bft) 0 min 2 min 5,2 km/h (1 Bft)
19.04.2012 07:00 15,3 C 8,2 C 0,0 UV-I 0,0 C 51 % 84 % 0 % 987,9 hPa 0,0 l/m 5,6 km/h (1 Bft) 0 min 2 min 6,8 km/h (2 Bft)
19.04.2012 07:02 15,3 C 8,3 C 0,0 UV-I 0,0 C 51 % 84 % 0 % 987,9 hPa 0,0 l/m 5,6 km/h (1 Bft) 0 min 0 min 18,1 km/h (3 Bft)
19.04.2012 07:04 15,4 C 8,3 C 0,0 UV-I 0,0 C 51 % 84 % 0 % 988,1 hPa 0,0 l/m 4,4 km/h (1 Bft) 0 min 0 min 10,8 km/h (2 Bft)
19.04.2012 07:06 15,4 C 8,3 C 0,0 UV-I 0,0 C 51 % 84 % 0 % 988,1 hPa 0,0 l/m 3,6 km/h (1 Bft) 0 min 0 min 10,8 km/h (2 Bft)
19.04.2012 07:08 15,4 C 8,3 C 0,0 UV-I 0,0 C 51 % 84 % 0 % 988,1 hPa 0,0 l/m 4,4 km/h (1 Bft) 0 min 0 min 15,3 km/h (3 Bft)
19.04.2012 07:10 15,4 C 8,2 C 0,0 UV-I 0,0 C 51 % 84 % 0 % 988,1 hPa 0,0 l/m 4,4 km/h (1 Bft) 0 min 0 min 15,3 km/h (3 Bft)
19.04.2012 07:12 15,4 C 8,2 C 0,0 UV-I 0,0 C 51 % 84 % 0 % 988,1 hPa 0,0 l/m 5,2 km/h (1 Bft) 0 min 0 min 8,4 km/h (2 Bft)
19.04.2012 07:14 15,3 C 8,3 C 0,0 UV-I 0,0 C 51 % 84 % 0 % 988,1 hPa 0,0 l/m 4,8 km/h (1 Bft) 0 min 0 min 17,7 km/h (3 Bft)
19.04.2012 07:16 15,3 C 8,1 C 0,0 UV-I 0,0 C 51 % 84 % 0 % 988,1 hPa 0,0 l/m 6,0 km/h (2 Bft) 0 min 0 min 20,5 km/h (4 Bft)
19.04.2012 07:18 15,4 C 8,1 C 0,0 UV-I 0,0 C 51 % 84 % 0 % 988,1 hPa 0,0 l/m 6,8 km/h (2 Bft) 0 min 0 min 20,5 km/h (4 Bft)
19.04.2012 07:20 15,4 C 8,2 C 0,0 UV-I 0,0 C 51 % 84 % 0 % 988,1 hPa 0,0 l/m 6,8 km/h (2 Bft) 0 min 0 min 14,5 km/h (3 Bft)
19.04.2012 07:22 15,3 C 8,3 C 0,0 UV-I 0,0 C 51 % 84 % 0 % 988,1 hPa 0,0 l/m 6,8 km/h (2 Bft) 0 min 0 min 6,8 km/h (2 Bft)
19.04.2012 07:24 15,4 C 8,2 C 0,0 UV-I 0,0 C 51 % 84 % 0 % 988,2 hPa 0,0 l/m 6,8 km/h (2 Bft) 0 min 0 min 9,6 km/h (2 Bft)
19.04.2012 07:26 15,4 C 8,3 C 0,0 UV-I 0,0 C 51 % 84 % 0 % 988,2 hPa 0,0 l/m 6,4 km/h (2 Bft) 0 min 0 min 9,6 km/h (2 Bft)
19.04.2012 07:28 15,4 C 8,1 C 0,0 UV-I 0,0 C 51 % 84 % 0 % 988,2 hPa 0,0 l/m 5,6 km/h (1 Bft) 0 min 0 min 7,6 km/h (2 Bft)
19.04.2012 07:30 15,4 C 8,1 C 0,0 UV-I 0,0 C 51 % 84 % 0 % 988,2 hPa 0,0 l/m 4,8 km/h (1 Bft) 0 min 0 min 10,8 km/h (2 Bft)
19.04.2012 07:32 15,3 C 8,2 C 0,0 UV-I 0,0 C 51 % 84 % 0 % 988,2 hPa 0,0 l/m 4,4 km/h (1 Bft) 0 min 0 min 10,8 km/h (2 Bft)
19.04.2012 07:34 15,4 C 8,3 C 0,0 UV-I 0,0 C 51 % 84 % 0 % 988,2 hPa 0,0 l/m 4,8 km/h (1 Bft) 0 min 0 min 11,6 km/h (2 Bft)
19.04.2012 07:36 15,4 C 8,3 C 0,0 UV-I 0,0 C 51 % 84 % 0 % 988,2 hPa 0,0 l/m 4,4 km/h (1 Bft) 0 min 0 min 11,6 km/h (2 Bft)
19.04.2012 07:38 15,4 C 8,2 C 0,0 UV-I 0,0 C 51 % 84 % 0 % 988,2 hPa 0,0 l/m 5,2 km/h (1 Bft) 0 min 0 min 14,1 km/h (3 Bft)
19.04.2012 07:40 15,3 C 8,3 C 0,0 UV-I 0,0 C 51 % 84 % 0 % 988,2 hPa 0,0 l/m 5,6 km/h (1 Bft) 0 min 0 min 14,1 km/h (3 Bft)
19.04.2012 07:42 15,3 C 8,2 C 0,0 UV-I 0,0 C 51 % 84 % 0 % 988,2 hPa 0,0 l/m 6,0 km/h (2 Bft) 0 min 0 min 10,8 km/h (2 Bft)
19.04.2012 07:44 15,4 C 8,3 C 0,0 UV-I 0,0 C 51 % 84 % 0 % 988,2 hPa 0,0 l/m 5,6 km/h (1 Bft) 0 min 0 min 10,8 km/h (2 Bft)
19.04.2012 07:46 15,3 C 8,3 C 0,0 UV-I 0,0 C 51 % 84 % 0 % 988,2 hPa 0,0 l/m 6,4 km/h (2 Bft) 0 min 0 min 5,2 km/h (1 Bft)
19.04.2012 07:48 15,3 C 8,3 C 0,0 UV-I 0,0 C 51 % 84 % 0 % 988,2 hPa 0,0 l/m 7,2 km/h (2 Bft) 0 min 0 min 12,4 km/h (3 Bft)
19.04.2012 07:50 15,3 C 8,3 C 0,0 UV-I 0,0 C 51 % 84 % 0 % 988,2 hPa 0,0 l/m 6,8 km/h (2 Bft) 0 min 0 min 12,4 km/h (3 Bft)
19.04.2012 07:52 15,3 C 8,3 C 0,0 UV-I 0,0 C 51 % 84 % 0 % 988,2 hPa 0,0 l/m 6,8 km/h (2 Bft) 0 min 0 min 14,1 km/h (3 Bft)
19.04.2012 07:54 15,3 C 8,3 C 0,0 UV-I 0,0 C 51 % 84 % 0 % 988,2 hPa 0,0 l/m 7,2 km/h (2 Bft) 0 min 0 min 14,1 km/h (3 Bft)
19.04.2012 07:56 15,3 C 8,3 C 0,0 UV-I 0,0 C 51 % 84 % 0 % 988,2 hPa 0,0 l/m 7,6 km/h (2 Bft) 0 min 0 min 18,5 km/h (3 Bft)
19.04.2012 07:58 15,3 C 8,3 C 0,0 UV-I 0,0 C 51 % 84 % 0 % 988,2 hPa 0,0 l/m 8,0 km/h (2 Bft) 0 min 0 min 18,5 km/h (3 Bft)
19.04.2012 08:00 15,5 C 8,3 C 0,0 UV-I 0,0 C 51 % 84 % 0 % 988,2 hPa 0,0 l/m 7,6 km/h (2 Bft) 0 min 0 min 16,1 km/h (3 Bft)
19.04.2012 08:02 15,3 C 8,3 C 0,0 UV-I 0,0 C 51 % 84 % 0 % 988,2 hPa 0,0 l/m 8,0 km/h (2 Bft) 0 min 0 min 16,1 km/h (3 Bft)
19.04.2012 08:04 15,3 C 8,3 C 0,0 UV-I 0,0 C 51 % 84 % 0 % 988,6 hPa 0,0 l/m 8,4 km/h (2 Bft) 0 min 0 min 11,6 km/h (2 Bft)
19.04.2012 08:06 15,3 C 8,3 C 0,0 UV-I 0,0 C 51 % 84 % 0 % 988,6 hPa 0,0 l/m 8,4 km/h (2 Bft) 0 min 0 min 22,5 km/h (4 Bft)
19.04.2012 08:08 15,3 C 8,4 C 0,0 UV-I 0,0 C 51 % 84 % 0 % 988,6 hPa 0,0 l/m 8,0 km/h (2 Bft) 0 min 0 min 22,5 km/h (4 Bft)
19.04.2012 08:10 15,3 C 8,4 C 0,0 UV-I 0,0 C 51 % 84 % 0 % 988,6 hPa 0,0 l/m 8,0 km/h (2 Bft) 0 min 0 min 7,6 km/h (2 Bft)
19.04.2012 08:12 15,3 C 8,4 C 0,0 UV-I 0,0 C 51 % 84 % 0 % 988,6 hPa 0,0 l/m 8,4 km/h (2 Bft) 0 min 0 min 7,2 km/h (2 Bft)
19.04.2012 08:14 15,3 C 8,5 C 0,0 UV-I 0,0 C 51 % 84 % 0 % 988,6 hPa 0,0 l/m 8,8 km/h (2 Bft) 0 min 0 min 23,3 km/h (4 Bft)
19.04.2012 08:16 15,5 C 8,4 C 0,0 UV-I 0,1 C 51 % 84 % 3 % 988,6 hPa 0,0 l/m 8,8 km/h (2 Bft) 0 min 0 min 23,3 km/h (4 Bft)
19.04.2012 08:18 15,5 C 8,5 C 0,0 UV-I 0,2 C 51 % 84 % 6 % 988,6 hPa 0,0 l/m 9,2 km/h (2 Bft) 0 min 0 min 14,5 km/h (3 Bft)
19.04.2012 08:20 15,5 C 8,4 C 0,0 UV-I 0,4 C 51 % 84 % 11 % 988,6 hPa 0,0 l/m 8,8 km/h (2 Bft) 0 min 0 min 14,5 km/h (3 Bft)
19.04.2012 08:22 15,5 C 8,5 C 0,0 UV-I 0,5 C 51 % 84 % 14 % 988,6 hPa 0,0 l/m 8,8 km/h (2 Bft) 0 min 0 min 14,1 km/h (3 Bft)
19.04.2012 08:24 15,5 C 8,6 C 0,0 UV-I 0,5 C 51 % 84 % 14 % 988,9 hPa 0,0 l/m 7,6 km/h (2 Bft) 0 min 0 min 5,6 km/h (1 Bft)
19.04.2012 08:26 15,5 C 8,5 C 0,0 UV-I 0,7 C 51 % 84 % 20 % 988,9 hPa 0,0 l/m 6,8 km/h (2 Bft) 0 min 0 min 10,0 km/h (2 Bft)
19.04.2012 08:28 15,5 C 8,6 C 0,0 UV-I 0,6 C 51 % 84 % 17 % 988,9 hPa 0,0 l/m 6,8 km/h (2 Bft) 0 min 0 min 15,3 km/h (3 Bft)
19.04.2012 08:30 15,5 C 8,7 C 0,0 UV-I 0,4 C 51 % 83 % 11 % 988,9 hPa 0,0 l/m 6,4 km/h (2 Bft) 0 min 0 min 15,3 km/h (3 Bft)
19.04.2012 08:32 15,5 C 8,6 C 0,0 UV-I 0,5 C 51 % 83 % 14 % 988,9 hPa 0,0 l/m 6,0 km/h (2 Bft) 0 min 0 min 4,8 km/h (1 Bft)
19.04.2012 08:34 15,5 C 8,7 C 0,0 UV-I 0,4 C 51 % 83 % 11 % 988,9 hPa 0,0 l/m 6,8 km/h (2 Bft) 0 min 0 min 10,8 km/h (2 Bft)
19.04.2012 08:36 15,5 C 8,7 C 0,0 UV-I 0,4 C 51 % 83 % 11 % 988,9 hPa 0,0 l/m 8,0 km/h (2 Bft) 0 min 0 min 12,0 km/h (2 Bft)
19.04.2012 08:38 15,5 C 8,6 C 0,0 UV-I 0,5 C 51 % 83 % 14 % 988,9 hPa 0,0 l/m 8,4 km/h (2 Bft) 0 min 0 min 12,0 km/h (2 Bft)
19.04.2012 08:40 15,5 C 8,7 C 0,0 UV-I 0,4 C 51 % 83 % 11 % 988,9 hPa 0,0 l/m 8,0 km/h (2 Bft) 0 min 0 min 8,0 km/h (2 Bft)
19.04.2012 08:42 15,5 C 8,6 C 0,0 UV-I 0,5 C 51 % 82 % 14 % 988,9 hPa 0,0 l/m 8,4 km/h (2 Bft) 0 min 0 min 8,0 km/h (2 Bft)
19.04.2012 08:44 15,5 C 8,7 C 0,0 UV-I 0,4 C 51 % 83 % 11 % 989,1 hPa 0,0 l/m 8,0 km/h (2 Bft) 0 min 0 min 5,6 km/h (1 Bft)
19.04.2012 08:46 15,5 C 8,6 C 0,0 UV-I 0,5 C 51 % 83 % 14 % 989,1 hPa 0,0 l/m 6,8 km/h (2 Bft) 0 min 0 min 16,9 km/h (3 Bft)
19.04.2012 08:48 15,5 C 8,7 C 0,0 UV-I 0,4 C 51 % 82 % 11 % 989,1 hPa 0,0 l/m 5,6 km/h (1 Bft) 0 min 0 min 16,9 km/h (3 Bft)
19.04.2012 08:50 15,5 C 8,7 C 0,0 UV-I 0,4 C 51 % 82 % 11 % 989,1 hPa 0,0 l/m 6,0 km/h (2 Bft) 0 min 0 min 11,6 km/h (2 Bft)
19.04.2012 08:52 15,5 C 8,7 C 0,0 UV-I 0,4 C 51 % 82 % 11 % 989,1 hPa 0,0 l/m 6,4 km/h (2 Bft) 0 min 0 min 11,6 km/h (2 Bft)
19.04.2012 08:54 15,5 C 8,7 C 0,0 UV-I 0,4 C 51 % 82 % 11 % 989,1 hPa 0,0 l/m 7,6 km/h (2 Bft) 0 min 0 min 13,7 km/h (3 Bft)
19.04.2012 08:56 15,4 C 8,6 C 0,0 UV-I 0,5 C 51 % 82 % 14 % 989,1 hPa 0,0 l/m 8,0 km/h (2 Bft) 0 min 0 min 13,7 km/h (3 Bft)
19.04.2012 08:58 15,4 C 8,6 C 0,0 UV-I 0,5 C 51 % 82 % 14 % 989,1 hPa 0,0 l/m 8,0 km/h (2 Bft) 0 min 0 min 8,4 km/h (2 Bft)
19.04.2012 09:00 15,4 C 8,7 C 0,0 UV-I 0,4 C 51 % 82 % 11 % 989,1 hPa 0,0 l/m 8,4 km/h (2 Bft) 0 min 0 min 11,2 km/h (2 Bft)
19.04.2012 09:02 15,4 C 8,7 C 0,0 UV-I 0,4 C 51 % 82 % 11 % 989,1 hPa 0,0 l/m 7,2 km/h (2 Bft) 0 min 0 min 11,2 km/h (2 Bft)
19.04.2012 09:04 15,4 C 8,7 C 0,1 UV-I 0,4 C 50 % 82 % 11 % 988,9 hPa 0,0 l/m 6,8 km/h (2 Bft) 0 min 0 min 10,0 km/h (2 Bft)
19.04.2012 09:06 15,4 C 8,7 C 0,1 UV-I 0,5 C 51 % 81 % 14 % 988,9 hPa 0,0 l/m 6,8 km/h (2 Bft) 0 min 0 min 10,0 km/h (2 Bft)
19.04.2012 09:08 15,4 C 8,7 C 0,2 UV-I 0,5 C 51 % 81 % 14 % 988,9 hPa 0,0 l/m 7,6 km/h (2 Bft) 0 min 0 min 12,0 km/h (2 Bft)
19.04.2012 09:10 15,4 C 8,8 C 0,2 UV-I 0,5 C 50 % 81 % 14 % 988,9 hPa 0,0 l/m 8,0 km/h (2 Bft) 0 min 0 min 12,0 km/h (2 Bft)
19.04.2012 09:12 15,4 C 8,7 C 0,2 UV-I 0,6 C 50 % 81 % 17 % 988,9 hPa 0,0 l/m 8,4 km/h (2 Bft) 0 min 0 min 12,0 km/h (2 Bft)
19.04.2012 09:14 15,4 C 8,7 C 0,3 UV-I 0,7 C 50 % 81 % 20 % 988,9 hPa 0,0 l/m 8,0 km/h (2 Bft) 0 min 0 min 10,0 km/h (2 Bft)
19.04.2012 09:16 15,4 C 8,8 C 0,3 UV-I 0,8 C 50 % 81 % 23 % 988,9 hPa 0,0 l/m 7,6 km/h (2 Bft) 0 min 0 min 10,0 km/h (2 Bft)
19.04.2012 09:18 15,6 C 8,9 C 0,4 UV-I 0,8 C 50 % 81 % 23 % 988,9 hPa 0,0 l/m 8,4 km/h (2 Bft) 0 min 0 min 15,3 km/h (3 Bft)
19.04.2012 09:20 15,6 C 8,8 C 0,4 UV-I 1,0 C 50 % 81 % 29 % 988,9 hPa 0,0 l/m 8,4 km/h (2 Bft) 0 min 0 min 21,7 km/h (4 Bft)
19.04.2012 09:22 15,6 C 8,8 C 0,4 UV-I 1,1 C 50 % 81 % 31 % 988,9 hPa 0,0 l/m 8,0 km/h (2 Bft) 0 min 0 min 21,7 km/h (4 Bft)
19.04.2012 09:24 15,6 C 8,8 C 0,4 UV-I 1,1 C 50 % 81 % 31 % 988,9 hPa 0,0 l/m 8,8 km/h (2 Bft) 0 min 0 min 16,1 km/h (3 Bft)
19.04.2012 09:26 15,6 C 8,9 C 0,4 UV-I 1,2 C 50 % 81 % 34 % 988,9 hPa 0,0 l/m 8,8 km/h (2 Bft) 0 min 0 min 10,8 km/h (2 Bft)
19.04.2012 09:28 15,6 C 8,9 C 0,5 UV-I 1,2 C 50 % 81 % 34 % 988,9 hPa 0,0 l/m 9,2 km/h (2 Bft) 0 min 0 min 10,8 km/h (2 Bft)
19.04.2012 09:30 15,6 C 9,0 C 0,5 UV-I 1,3 C 50 % 81 % 37 % 988,9 hPa 0,0 l/m 8,8 km/h (2 Bft) 0 min 0 min 12,0 km/h (2 Bft)
19.04.2012 09:32 15,6 C 8,9 C 0,5 UV-I 1,4 C 50 % 81 % 40 % 988,9 hPa 0,0 l/m 8,4 km/h (2 Bft) 0 min 0 min 17,7 km/h (3 Bft)
19.04.2012 09:34 15,6 C 9,1 C 0,4 UV-I 1,3 C 50 % 81 % 37 % 988,9 hPa 0,0 l/m 8,0 km/h (2 Bft) 0 min 0 min 17,7 km/h (3 Bft)
19.04.2012 09:36 15,6 C 9,1 C 0,4 UV-I 1,3 C 50 % 81 % 37 % 988,9 hPa 0,0 l/m 8,0 km/h (2 Bft) 0 min 0 min 10,4 km/h (2 Bft)
19.04.2012 09:38 15,6 C 9,1 C 0,5 UV-I 1,4 C 50 % 81 % 40 % 988,9 hPa 0,0 l/m 8,0 km/h (2 Bft) 0 min 0 min 14,9 km/h (3 Bft)
19.04.2012 09:40 15,6 C 9,0 C 0,5 UV-I 1,6 C 50 % 81 % 46 % 988,9 hPa 0,0 l/m 8,4 km/h (2 Bft) 0 min 0 min 14,9 km/h (3 Bft)
19.04.2012 09:42 15,6 C 9,0 C 0,5 UV-I 1,8 C 50 % 80 % 51 % 988,9 hPa 0,0 l/m 9,6 km/h (2 Bft) 0 min 0 min 14,5 km/h (3 Bft)
19.04.2012 09:45 15,6 C 9,2 C 0,9 UV-I 3,1 C 50 % 81 % 89 % 989,4 hPa 0,0 l/m 9,6 km/h (2 Bft) 2 min 0 min 19,3 km/h (3 Bft)
19.04.2012 09:50 15,6 C 9,5 C 1,5 UV-I 4,1 C 50 % 80 % 100 % 989,4 hPa 0,0 l/m 9,2 km/h (2 Bft) 2 min 0 min 6,0 km/h (2 Bft)
19.04.2012 09:55 15,7 C 9,6 C 1,3 UV-I 3,7 C 50 % 79 % 100 % 989,4 hPa 0,0 l/m 8,4 km/h (2 Bft) 2 min 0 min 14,1 km/h (3 Bft)
19.04.2012 10:00 15,6 C 9,5 C 0,7 UV-I 2,8 C 50 % 78 % 80 % 989,4 hPa 0,0 l/m 8,8 km/h (2 Bft) 0 min 0 min 9,2 km/h (2 Bft)
19.04.2012 10:05 15,7 C 9,5 C 0,6 UV-I 2,0 C 50 % 78 % 57 % 989,7 hPa 0,0 l/m 9,6 km/h (2 Bft) 0 min 0 min 32,5 km/h (5 Bft)
19.04.2012 10:10 15,6 C 9,5 C 0,7 UV-I 1,8 C 50 % 79 % 51 % 989,7 hPa 0,0 l/m 8,8 km/h (2 Bft) 0 min 0 min 14,1 km/h (3 Bft)
19.04.2012 10:15 15,6 C 9,5 C 1,1 UV-I 2,4 C 50 % 79 % 69 % 989,7 hPa 0,0 l/m 9,2 km/h (2 Bft) 0 min 0 min 10,0 km/h (2 Bft)
19.04.2012 10:20 15,6 C 9,6 C 1,4 UV-I 2,7 C 50 % 78 % 77 % 989,7 hPa 0,0 l/m 10,0 km/h (2 Bft) 0 min 0 min 13,3 km/h (3 Bft)
19.04.2012 10:25 15,6 C 9,9 C 1,5 UV-I 2,9 C 50 % 78 % 83 % 989,8 hPa 0,0 l/m 11,2 km/h (2 Bft) 2 min 0 min 11,2 km/h (2 Bft)
19.04.2012 10:30 15,6 C 9,9 C 1,5 UV-I 3,1 C 50 % 78 % 89 % 989,8 hPa 0,0 l/m 10,0 km/h (2 Bft) 2 min 0 min 9,2 km/h (2 Bft)
19.04.2012 10:35 15,8 C 10,1 C 1,7 UV-I 3,4 C 50 % 77 % 97 % 989,8 hPa 0,0 l/m 9,2 km/h (2 Bft) 2 min 0 min 11,2 km/h (2 Bft)
19.04.2012 10:40 15,8 C 10,2 C 1,8 UV-I 3,4 C 50 % 77 % 97 % 989,8 hPa 0,0 l/m 10,4 km/h (2 Bft) 2 min 0 min 22,5 km/h (4 Bft)
19.04.2012 10:45 15,8 C 10,3 C 1,6 UV-I 3,0 C 50 % 76 % 86 % 989,9 hPa 0,0 l/m 11,2 km/h (2 Bft) 2 min 0 min 18,1 km/h (3 Bft)
19.04.2012 10:50 15,8 C 10,4 C 2,6 UV-I 3,7 C 49 % 75 % 100 % 989,9 hPa 0,0 l/m 11,6 km/h (2 Bft) 2 min 0 min 13,7 km/h (3 Bft)
19.04.2012 10:55 15,8 C 10,7 C 3,0 UV-I 4,5 C 49 % 74 % 100 % 989,9 hPa 0,0 l/m 12,0 km/h (2 Bft) 2 min 0 min 26,1 km/h (4 Bft)
19.04.2012 11:00 15,8 C 10,9 C 4,1 UV-I 5,0 C 49 % 75 % 100 % 989,9 hPa 0,0 l/m 11,2 km/h (2 Bft) 2 min 0 min 30,9 km/h (5 Bft)
19.04.2012 11:05 15,8 C 11,1 C 3,9 UV-I 4,9 C 49 % 73 % 100 % 990,1 hPa 0,0 l/m 12,4 km/h (3 Bft) 2 min 0 min 8,0 km/h (2 Bft)
19.04.2012 11:10 15,8 C 11,0 C 3,2 UV-I 4,9 C 49 % 73 % 100 % 990,1 hPa 0,0 l/m 11,2 km/h (2 Bft) 2 min 0 min 7,6 km/h (2 Bft)
19.04.2012 11:15 15,9 C 11,1 C 2,8 UV-I 5,0 C 49 % 72 % 100 % 990,1 hPa 0,0 l/m 8,0 km/h (2 Bft) 2 min 0 min 11,6 km/h (2 Bft)
19.04.2012 11:20 15,9 C 11,2 C 2,2 UV-I 4,2 C 49 % 72 % 100 % 990,1 hPa 0,0 l/m 9,2 km/h (2 Bft) 2 min 0 min 28,5 km/h (4 Bft)
19.04.2012 11:27 15,9 C 11,1 C 1,3 UV-I 2,9 C 49 % 71 % 83 % 990,2 hPa 0,0 l/m 12,0 km/h (2 Bft) 2 min 0 min 16,5 km/h (3 Bft)
19.04.2012 11:28 15,9 C 11,2 C 1,0 UV-I 2,6 C 49 % 71 % 74 % 990,2 hPa 0,0 l/m 12,0 km/h (2 Bft) 0 min 0 min 13,3 km/h (3 Bft)
19.04.2012 11:30 15,9 C 11,1 C 1,0 UV-I 2,6 C 49 % 71 % 74 % 990,2 hPa 0,0 l/m 12,8 km/h (3 Bft) 0 min 0 min 24,1 km/h (4 Bft)
19.04.2012 11:32 15,9 C 11,1 C 1,0 UV-I 2,4 C 49 % 72 % 69 % 990,2 hPa 0,0 l/m 11,6 km/h (2 Bft) 0 min 0 min 24,1 km/h (4 Bft)
19.04.2012 11:34 15,9 C 11,1 C 0,4 UV-I 2,3 C 49 % 72 % 66 % 990,2 hPa 0,0 l/m 11,2 km/h (2 Bft) 0 min 0 min 20,5 km/h (4 Bft)
19.04.2012 11:36 15,9 C 11,2 C 0,4 UV-I 2,1 C 49 % 72 % 60 % 990,2 hPa 0,0 l/m 10,8 km/h (2 Bft) 0 min 0 min 20,5 km/h (4 Bft)
19.04.2012 11:38 15,8 C 11,1 C 0,3 UV-I 2,0 C 49 % 72 % 57 % 990,2 hPa 0,0 l/m 10,4 km/h (2 Bft) 0 min 0 min 12,0 km/h (2 Bft)
19.04.2012 11:40 15,8 C 11,1 C 0,3 UV-I 2,1 C 49 % 72 % 60 % 990,2 hPa 0,0 l/m 10,4 km/h (2 Bft) 0 min 0 min 21,7 km/h (4 Bft)
19.04.2012 11:42 16,0 C 11,1 C 0,3 UV-I 2,0 C 49 % 71 % 57 % 990,2 hPa 0,0 l/m 10,4 km/h (2 Bft) 0 min 0 min 21,7 km/h (4 Bft)
19.04.2012 11:44 15,8 C 11,1 C 0,4 UV-I 1,9 C 49 % 71 % 54 % 990,2 hPa 0,0 l/m 12,4 km/h (3 Bft) 0 min 0 min 20,1 km/h (4 Bft)
19.04.2012 11:46 16,0 C 11,1 C 0,4 UV-I 1,8 C 49 % 71 % 51 % 990,2 hPa 0,0 l/m 12,0 km/h (2 Bft) 0 min 0 min 20,1 km/h (4 Bft)
19.04.2012 11:48 16,0 C 11,1 C 0,3 UV-I 1,8 C 49 % 71 % 51 % 990,2 hPa 0,0 l/m 13,7 km/h (3 Bft) 0 min 0 min 22,1 km/h (4 Bft)
19.04.2012 11:50 16,0 C 11,1 C 0,3 UV-I 1,7 C 49 % 71 % 49 % 990,2 hPa 0,0 l/m 13,7 km/h (3 Bft) 0 min 0 min 22,1 km/h (4 Bft)
19.04.2012 11:52 16,0 C 11,1 C 0,3 UV-I 1,7 C 49 % 71 % 49 % 990,2 hPa 0,0 l/m 13,7 km/h (3 Bft) 0 min 0 min 7,2 km/h (2 Bft)
19.04.2012 11:54 16,0 C 11,2 C 0,4 UV-I 1,7 C 49 % 71 % 49 % 990,2 hPa 0,0 l/m 12,0 km/h (2 Bft) 0 min 0 min 8,8 km/h (2 Bft)
19.04.2012 11:56 15,9 C 11,2 C 0,4 UV-I 1,8 C 49 % 71 % 51 % 990,2 hPa 0,0 l/m 11,2 km/h (2 Bft) 0 min 0 min 19,3 km/h (3 Bft)
19.04.2012 11:58 15,9 C 11,2 C 0,1 UV-I 1,8 C 49 % 71 % 51 % 990,2 hPa 0,0 l/m 10,8 km/h (2 Bft) 0 min 0 min 19,3 km/h (3 Bft)
19.04.2012 12:00 15,9 C 11,2 C 0,1 UV-I 1,6 C 49 % 71 % 46 % 990,2 hPa 0,0 l/m 9,2 km/h (2 Bft) 0 min 0 min 20,9 km/h (4 Bft)
19.04.2012 12:02 15,9 C 11,2 C 0,1 UV-I 1,6 C 49 % 71 % 46 % 990,2 hPa 0,0 l/m 9,6 km/h (2 Bft) 0 min 0 min 20,9 km/h (4 Bft)
19.04.2012 12:04 15,9 C 11,2 C 0,1 UV-I 1,6 C 49 % 71 % 46 % 990,3 hPa 0,0 l/m 9,6 km/h (2 Bft) 0 min 0 min 14,5 km/h (3 Bft)
19.04.2012 12:06 16,1 C 11,3 C 0,1 UV-I 1,7 C 49 % 71 % 49 % 990,3 hPa 0,0 l/m 9,2 km/h (2 Bft) 0 min 0 min 14,5 km/h (3 Bft)
19.04.2012 12:08 15,9 C 11,5 C 0,9 UV-I 1,6 C 49 % 70 % 46 % 990,3 hPa 0,0 l/m 8,8 km/h (2 Bft) 0 min 0 min 12,8 km/h (3 Bft)
19.04.2012 12:10 16,1 C 11,5 C 0,9 UV-I 2,0 C 49 % 69 % 57 % 990,3 hPa 0,0 l/m 8,8 km/h (2 Bft) 0 min 0 min 8,4 km/h (2 Bft)
19.04.2012 12:12 16,1 C 11,6 C 0,9 UV-I 2,5 C 49 % 70 % 71 % 990,3 hPa 0,0 l/m 7,6 km/h (2 Bft) 0 min 0 min 8,4 km/h (2 Bft)
19.04.2012 12:14 16,1 C 11,8 C 2,4 UV-I 3,4 C 49 % 70 % 97 % 990,3 hPa 0,0 l/m 7,2 km/h (2 Bft) 2 min 0 min 17,7 km/h (3 Bft)
19.04.2012 12:16 16,1 C 11,9 C 2,4 UV-I 3,7 C 49 % 69 % 100 % 990,3 hPa 0,0 l/m 8,4 km/h (2 Bft) 2 min 0 min 21,7 km/h (4 Bft)
19.04.2012 12:18 16,1 C 12,1 C 2,5 UV-I 3,6 C 49 % 69 % 100 % 990,3 hPa 0,0 l/m 8,8 km/h (2 Bft) 2 min 0 min 21,7 km/h (4 Bft)
19.04.2012 12:20 16,2 C 12,0 C 2,5 UV-I 3,9 C 49 % 68 % 100 % 990,3 hPa 0,0 l/m 10,0 km/h (2 Bft) 2 min 0 min 20,9 km/h (4 Bft)
19.04.2012 12:22 16,2 C 12,1 C 2,5 UV-I 3,5 C 49 % 68 % 100 % 990,3 hPa 0,0 l/m 12,4 km/h (3 Bft) 2 min 0 min 19,7 km/h (3 Bft)
19.04.2012 12:24 16,2 C 12,2 C 1,8 UV-I 3,3 C 49 % 67 % 94 % 990,3 hPa 0,0 l/m 14,1 km/h (3 Bft) 2 min 0 min 13,7 km/h (3 Bft)
19.04.2012 12:26 16,2 C 12,2 C 1,8 UV-I 3,7 C 49 % 69 % 100 % 990,3 hPa 0,0 l/m 13,7 km/h (3 Bft) 2 min 0 min 14,9 km/h (3 Bft)
19.04.2012 12:28 16,3 C 12,4 C 3,1 UV-I 4,1 C 49 % 68 % 100 % 990,3 hPa 0,0 l/m 14,5 km/h (3 Bft) 2 min 0 min 19,7 km/h (3 Bft)
19.04.2012 12:30 16,2 C 12,4 C 3,1 UV-I 4,0 C 49 % 65 % 100 % 990,3 hPa 0,0 l/m 14,5 km/h (3 Bft) 2 min 0 min 19,7 km/h (3 Bft)
19.04.2012 12:32 16,4 C 12,3 C 3,1 UV-I 3,8 C 49 % 65 % 100 % 990,3 hPa 0,0 l/m 12,4 km/h (3 Bft) 2 min 0 min 11,2 km/h (2 Bft)
19.04.2012 12:34 16,4 C 12,3 C 1,5 UV-I 3,5 C 48 % 65 % 100 % 990,3 hPa 0,0 l/m 11,6 km/h (2 Bft) 2 min 0 min 16,1 km/h (3 Bft)
19.04.2012 12:36 16,4 C 12,1 C 1,5 UV-I 3,2 C 48 % 65 % 91 % 990,3 hPa 0,0 l/m 11,6 km/h (2 Bft) 2 min 0 min 16,1 km/h (3 Bft)
19.04.2012 12:38 16,5 C 12,1 C 0,6 UV-I 2,9 C 48 % 66 % 83 % 990,3 hPa 0,0 l/m 10,0 km/h (2 Bft) 2 min 0 min 15,3 km/h (3 Bft)
19.04.2012 12:40 16,5 C 12,3 C 0,6 UV-I 2,9 C 48 % 67 % 83 % 990,3 hPa 0,0 l/m 9,6 km/h (2 Bft) 2 min 0 min 14,1 km/h (3 Bft)
19.04.2012 12:42 16,5 C 12,2 C 0,6 UV-I 3,4 C 48 % 67 % 97 % 990,3 hPa 0,0 l/m 9,2 km/h (2 Bft) 2 min 0 min 14,1 km/h (3 Bft)
19.04.2012 12:44 16,5 C 12,4 C 1,6 UV-I 3,5 C 48 % 66 % 100 % 990,4 hPa 0,0 l/m 10,4 km/h (2 Bft) 2 min 0 min 23,3 km/h (4 Bft)
19.04.2012 12:46 16,5 C 12,4 C 1,6 UV-I 3,8 C 48 % 66 % 100 % 990,4 hPa 0,0 l/m 10,4 km/h (2 Bft) 2 min 0 min 30,9 km/h (5 Bft)
19.04.2012 12:48 16,6 C 12,5 C 3,0 UV-I 4,3 C 48 % 66 % 100 % 990,4 hPa 0,0 l/m 11,2 km/h (2 Bft) 2 min 0 min 30,9 km/h (5 Bft)
19.04.2012 12:50 16,6 C 12,7 C 3,0 UV-I 4,6 C 48 % 66 % 100 % 990,4 hPa 0,0 l/m 12,4 km/h (3 Bft) 2 min 0 min 30,9 km/h (5 Bft)
19.04.2012 12:52 16,6 C 12,7 C 3,0 UV-I 4,5 C 48 % 66 % 100 % 990,4 hPa 0,0 l/m 12,4 km/h (3 Bft) 2 min 0 min 30,9 km/h (5 Bft)
19.04.2012 12:54 16,6 C 12,8 C 2,8 UV-I 5,0 C 48 % 66 % 100 % 990,4 hPa 0,0 l/m 12,4 km/h (3 Bft) 2 min 0 min 14,9 km/h (3 Bft)
19.04.2012 12:56 16,6 C 13,1 C 2,8 UV-I 5,1 C 48 % 66 % 100 % 990,4 hPa 0,0 l/m 12,4 km/h (3 Bft) 2 min 0 min 17,3 km/h (3 Bft)
19.04.2012 12:58 16,7 C 13,2 C 3,4 UV-I 5,4 C 48 % 66 % 100 % 990,4 hPa 0,0 l/m 13,3 km/h (3 Bft) 2 min 0 min 32,5 km/h (5 Bft)
19.04.2012 13:00 16,7 C 13,4 C 3,4 UV-I 5,4 C 48 % 66 % 100 % 990,4 hPa 0,0 l/m 13,3 km/h (3 Bft) 2 min 0 min 32,5 km/h (5 Bft)
19.04.2012 13:02 16,7 C 13,4 C 3,4 UV-I 5,4 C 48 % 66 % 100 % 990,4 hPa 0,0 l/m 12,0 km/h (2 Bft) 2 min 0 min 12,8 km/h (3 Bft)
19.04.2012 13:04 16,8 C 13,5 C 3,5 UV-I 5,8 C 48 % 66 % 100 % 990,4 hPa 0,0 l/m 12,0 km/h (2 Bft) 2 min 0 min 10,0 km/h (2 Bft)
19.04.2012 13:06 16,8 C 13,7 C 3,5 UV-I 6,0 C 48 % 66 % 100 % 990,4 hPa 0,0 l/m 12,0 km/h (2 Bft) 2 min 0 min 21,3 km/h (4 Bft)
19.04.2012 13:08 16,8 C 13,8 C 3,5 UV-I 6,0 C 48 % 65 % 100 % 990,4 hPa 0,0 l/m 12,0 km/h (2 Bft) 2 min 0 min 21,3 km/h (4 Bft)
19.04.2012 13:10 16,8 C 13,8 C 3,5 UV-I 6,2 C 48 % 66 % 100 % 990,4 hPa 0,0 l/m 11,2 km/h (2 Bft) 2 min 0 min 9,6 km/h (2 Bft)
19.04.2012 13:12 16,8 C 13,9 C 3,5 UV-I 5,9 C 48 % 64 % 100 % 990,4 hPa 0,0 l/m 10,4 km/h (2 Bft) 2 min 0 min 7,2 km/h (2 Bft)
19.04.2012 13:14 16,9 C 13,9 C 2,2 UV-I 5,4 C 48 % 63 % 100 % 990,4 hPa 0,0 l/m 10,4 km/h (2 Bft) 2 min 0 min 7,2 km/h (2 Bft)
19.04.2012 13:16 16,9 C 13,9 C 2,2 UV-I 4,7 C 48 % 62 % 100 % 990,4 hPa 0,0 l/m 10,0 km/h (2 Bft) 2 min 0 min 9,6 km/h (2 Bft)
19.04.2012 13:18 16,9 C 13,6 C 1,2 UV-I 4,6 C 48 % 62 % 100 % 990,4 hPa 0,0 l/m 8,8 km/h (2 Bft) 2 min 0 min 19,7 km/h (3 Bft)
19.04.2012 13:20 16,9 C 13,6 C 1,2 UV-I 3,9 C 48 % 62 % 100 % 990,4 hPa 0,0 l/m 7,6 km/h (2 Bft) 2 min 0 min 19,7 km/h (3 Bft)
19.04.2012 13:22 17,0 C 13,4 C 1,2 UV-I 3,4 C 48 % 62 % 97 % 990,4 hPa 0,0 l/m 7,2 km/h (2 Bft) 2 min 0 min 14,5 km/h (3 Bft)
19.04.2012 13:24 17,0 C 13,3 C 0,6 UV-I 3,2 C 47 % 62 % 91 % 990,6 hPa 0,0 l/m 6,4 km/h (2 Bft) 2 min 0 min 4,8 km/h (1 Bft)
19.04.2012 13:26 17,0 C 13,2 C 0,6 UV-I 2,9 C 47 % 62 % 83 % 990,6 hPa 0,0 l/m 6,4 km/h (2 Bft) 2 min 0 min 13,3 km/h (3 Bft)
19.04.2012 13:28 17,0 C 13,1 C 0,3 UV-I 2,5 C 47 % 62 % 71 % 990,6 hPa 0,0 l/m 6,8 km/h (2 Bft) 0 min 0 min 13,3 km/h (3 Bft)
19.04.2012 13:30 17,0 C 13,1 C 0,3 UV-I 2,2 C 47 % 63 % 63 % 990,6 hPa 0,0 l/m 6,4 km/h (2 Bft) 0 min 0 min 13,3 km/h (3 Bft)
19.04.2012 13:32 17,0 C 13,0 C 0,3 UV-I 2,0 C 47 % 62 % 57 % 990,6 hPa 0,0 l/m 6,0 km/h (2 Bft) 0 min 0 min 13,3 km/h (3 Bft)
19.04.2012 13:34 17,1 C 12,9 C 0,0 UV-I 1,8 C 47 % 63 % 51 % 990,6 hPa 0,0 l/m 6,4 km/h (2 Bft) 0 min 0 min 10,8 km/h (2 Bft)
19.04.2012 13:36 17,0 C 12,9 C 0,0 UV-I 1,5 C 47 % 63 % 43 % 990,6 hPa 0,0 l/m 6,0 km/h (2 Bft) 0 min 0 min 10,8 km/h (2 Bft)
19.04.2012 13:38 17,1 C 12,8 C 0,0 UV-I 1,3 C 47 % 63 % 37 % 990,6 hPa 0,0 l/m 5,2 km/h (1 Bft) 0 min 0 min 13,7 km/h (3 Bft)
19.04.2012 13:40 17,1 C 12,7 C 0,0 UV-I 1,2 C 47 % 64 % 34 % 990,6 hPa 0,0 l/m 5,6 km/h (1 Bft) 0 min 0 min 13,7 km/h (3 Bft)
19.04.2012 13:42 17,1 C 12,7 C 0,0 UV-I 0,9 C 47 % 64 % 26 % 990,6 hPa 0,0 l/m 6,0 km/h (2 Bft) 0 min 0 min 10,4 km/h (2 Bft)
19.04.2012 13:44 17,1 C 12,7 C 0,2 UV-I 0,9 C 47 % 64 % 26 % 990,3 hPa 0,0 l/m 6,0 km/h (2 Bft) 0 min 0 min 6,8 km/h (2 Bft)
19.04.2012 13:46 17,1 C 12,7 C 0,2 UV-I 0,9 C 47 % 64 % 26 % 990,3 hPa 0,0 l/m 6,0 km/h (2 Bft) 0 min 0 min 8,8 km/h (2 Bft)
19.04.2012 13:48 17,1 C 12,6 C 0,9 UV-I 1,1 C 47 % 64 % 31 % 990,3 hPa 0,0 l/m 6,0 km/h (2 Bft) 0 min 0 min 8,8 km/h (2 Bft)
19.04.2012 13:50 17,1 C 12,7 C 0,9 UV-I 1,9 C 47 % 65 % 54 % 990,3 hPa 0,0 l/m 5,6 km/h (1 Bft) 0 min 0 min 7,2 km/h (2 Bft)
19.04.2012 13:52 17,1 C 12,9 C 0,9 UV-I 2,4 C 47 % 65 % 69 % 990,3 hPa 0,0 l/m 5,2 km/h (1 Bft) 0 min 0 min 11,2 km/h (2 Bft)
19.04.2012 13:54 17,2 C 13,1 C 1,8 UV-I 3,1 C 47 % 65 % 89 % 990,3 hPa 0,0 l/m 4,8 km/h (1 Bft) 2 min 0 min 11,2 km/h (2 Bft)
19.04.2012 13:56 17,2 C 13,2 C 1,8 UV-I 3,8 C 47 % 65 % 100 % 990,3 hPa 0,0 l/m 5,6 km/h (1 Bft) 2 min 0 min 27,3 km/h (4 Bft)
19.04.2012 13:58 17,2 C 13,2 C 1,3 UV-I 3,8 C 47 % 63 % 100 % 990,3 hPa 0,0 l/m 5,6 km/h (1 Bft) 2 min 0 min 27,3 km/h (4 Bft)
19.04.2012 14:00 17,2 C 13,3 C 1,3 UV-I 3,5 C 46 % 63 % 100 % 990,3 hPa 0,0 l/m 6,0 km/h (2 Bft) 2 min 0 min 10,0 km/h (2 Bft)
19.04.2012 14:02 17,2 C 13,3 C 1,3 UV-I 3,2 C 46 % 62 % 91 % 990,3 hPa 0,0 l/m 6,4 km/h (2 Bft) 2 min 0 min 7,6 km/h (2 Bft)
19.04.2012 14:04 17,2 C 13,2 C 0,5 UV-I 3,0 C 46 % 61 % 86 % 991,2 hPa 0,0 l/m 6,4 km/h (2 Bft) 2 min 0 min 8,4 km/h (2 Bft)
19.04.2012 14:06 17,2 C 13,3 C 0,5 UV-I 2,8 C 46 % 62 % 80 % 991,2 hPa 0,0 l/m 7,2 km/h (2 Bft) 0 min 0 min 8,4 km/h (2 Bft)
19.04.2012 14:08 17,2 C 13,2 C 1,4 UV-I 2,9 C 46 % 61 % 83 % 991,2 hPa 0,0 l/m 6,8 km/h (2 Bft) 2 min 0 min 9,6 km/h (2 Bft)
19.04.2012 14:10 17,2 C 13,3 C 1,4 UV-I 3,1 C 46 % 60 % 89 % 991,2 hPa 0,0 l/m 7,2 km/h (2 Bft) 2 min 0 min 9,6 km/h (2 Bft)
19.04.2012 14:12 17,2 C 13,5 C 1,4 UV-I 3,3 C 46 % 59 % 94 % 991,2 hPa 0,0 l/m 8,0 km/h (2 Bft) 2 min 0 min 8,8 km/h (2 Bft)
19.04.2012 14:14 17,2 C 13,6 C 2,5 UV-I 3,8 C 46 % 60 % 100 % 991,2 hPa 0,0 l/m 8,0 km/h (2 Bft) 2 min 0 min 12,0 km/h (2 Bft)
19.04.2012 14:16 17,2 C 13,7 C 2,5 UV-I 4,2 C 46 % 60 % 100 % 991,2 hPa 0,0 l/m 8,0 km/h (2 Bft) 2 min 0 min 12,0 km/h (2 Bft)
19.04.2012 14:18 17,2 C 13,9 C 2,7 UV-I 4,5 C 46 % 59 % 100 % 991,2 hPa 0,0 l/m 8,4 km/h (2 Bft) 2 min 0 min 12,0 km/h (2 Bft)
19.04.2012 14:20 17,4 C 14,1 C 2,7 UV-I 4,8 C 45 % 59 % 100 % 991,2 hPa 0,0 l/m 8,0 km/h (2 Bft) 2 min 0 min 12,0 km/h (2 Bft)
19.04.2012 14:22 17,4 C 14,1 C 2,7 UV-I 5,5 C 45 % 59 % 100 % 991,2 hPa 0,0 l/m 8,0 km/h (2 Bft) 2 min 0 min 29,7 km/h (5 Bft)
19.04.2012 14:24 17,4 C 14,1 C 2,8 UV-I 5,8 C 45 % 57 % 100 % 991,8 hPa 0,0 l/m 8,4 km/h (2 Bft) 2 min 0 min 29,7 km/h (5 Bft)
19.04.2012 14:26 17,5 C 14,2 C 2,8 UV-I 5,4 C 45 % 56 % 100 % 991,8 hPa 0,0 l/m 8,0 km/h (2 Bft) 2 min 0 min 12,4 km/h (3 Bft)
19.04.2012 14:28 17,5 C 14,3 C 2,5 UV-I 5,4 C 44 % 56 % 100 % 991,8 hPa 0,0 l/m 8,0 km/h (2 Bft) 2 min 0 min 19,3 km/h (3 Bft)
19.04.2012 14:30 17,6 C 14,4 C 2,5 UV-I 5,5 C 44 % 56 % 100 % 991,8 hPa 0,0 l/m 7,6 km/h (2 Bft) 2 min 0 min 19,3 km/h (3 Bft)
19.04.2012 14:32 17,6 C 14,4 C 2,5 UV-I 5,8 C 44 % 55 % 100 % 991,8 hPa 0,0 l/m 7,2 km/h (2 Bft) 2 min 0 min 11,6 km/h (2 Bft)
19.04.2012 14:34 17,7 C 14,6 C 2,7 UV-I 5,6 C 44 % 53 % 100 % 991,8 hPa 0,0 l/m 6,8 km/h (2 Bft) 2 min 0 min 19,3 km/h (3 Bft)
19.04.2012 14:36 17,7 C 14,7 C 2,7 UV-I 5,5 C 43 % 53 % 100 % 991,8 hPa 0,0 l/m 7,2 km/h (2 Bft) 2 min 0 min 19,3 km/h (3 Bft)
19.04.2012 14:38 17,8 C 14,6 C 2,9 UV-I 5,7 C 43 % 53 % 100 % 991,8 hPa 0,0 l/m 8,0 km/h (2 Bft) 2 min 0 min 17,3 km/h (3 Bft)
19.04.2012 14:40 17,8 C 14,7 C 2,9 UV-I 5,5 C 42 % 51 % 100 % 991,8 hPa 0,0 l/m 8,8 km/h (2 Bft) 2 min 0 min 19,3 km/h (3 Bft)
19.04.2012 14:42 17,9 C 14,7 C 2,9 UV-I 5,5 C 42 % 51 % 100 % 991,8 hPa 0,0 l/m 9,2 km/h (2 Bft) 2 min 0 min 19,3 km/h (3 Bft)
19.04.2012 14:44 18,0 C 14,7 C 2,7 UV-I 5,3 C 42 % 51 % 100 % 991,8 hPa 0,0 l/m 9,2 km/h (2 Bft) 2 min 0 min 13,3 km/h (3 Bft)
19.04.2012 14:46 18,0 C 14,7 C 2,7 UV-I 5,1 C 41 % 51 % 100 % 991,8 hPa 0,0 l/m 8,4 km/h (2 Bft) 2 min 0 min 6,8 km/h (2 Bft)
19.04.2012 14:48 18,0 C 14,6 C 1,8 UV-I 4,8 C 41 % 52 % 100 % 991,8 hPa 0,0 l/m 8,8 km/h (2 Bft) 2 min 0 min 13,3 km/h (3 Bft)
19.04.2012 14:50 18,0 C 14,7 C 1,8 UV-I 4,3 C 41 % 52 % 100 % 991,8 hPa 0,0 l/m 7,2 km/h (2 Bft) 2 min 0 min 13,3 km/h (3 Bft)
19.04.2012 14:52 18,1 C 14,6 C 1,8 UV-I 4,1 C 41 % 52 % 100 % 991,8 hPa 0,0 l/m 6,4 km/h (2 Bft) 2 min 0 min 4,0 km/h (1 Bft)
19.04.2012 14:54 18,1 C 14,7 C 1,2 UV-I 3,5 C 41 % 52 % 100 % 991,8 hPa 0,0 l/m 6,0 km/h (2 Bft) 2 min 0 min 12,4 km/h (3 Bft)
19.04.2012 14:56 18,1 C 14,5 C 1,2 UV-I 3,2 C 41 % 51 % 91 % 991,8 hPa 0,0 l/m 6,0 km/h (2 Bft) 2 min 0 min 12,4 km/h (3 Bft)
19.04.2012 14:58 18,1 C 14,3 C 1,4 UV-I 3,1 C 41 % 51 % 89 % 991,8 hPa 0,0 l/m 5,6 km/h (1 Bft) 2 min 0 min 8,0 km/h (2 Bft)
19.04.2012 15:00 18,2 C 14,4 C 1,4 UV-I 3,0 C 41 % 52 % 86 % 991,8 hPa 0,0 l/m 4,4 km/h (1 Bft) 2 min 0 min 8,0 km/h (2 Bft)
19.04.2012 15:02 18,2 C 14,4 C 1,4 UV-I 3,6 C 41 % 53 % 100 % 991,8 hPa 0,0 l/m 4,8 km/h (1 Bft) 2 min 0 min 11,6 km/h (2 Bft)
19.04.2012 15:04 18,2 C 14,7 C 3,0 UV-I 3,8 C 41 % 53 % 100 % 991,5 hPa 0,0 l/m 5,2 km/h (1 Bft) 2 min 0 min 0,0 km/h (0 Bft)
19.04.2012 15:06 18,3 C 14,7 C 3,0 UV-I 4,4 C 41 % 53 % 100 % 991,5 hPa 0,0 l/m 4,4 km/h (1 Bft) 2 min 0 min 4,8 km/h (1 Bft)
19.04.2012 15:08 18,4 C 14,9 C 2,1 UV-I 4,5 C 41 % 52 % 100 % 991,5 hPa 0,0 l/m 4,4 km/h (1 Bft) 2 min 0 min 10,8 km/h (2 Bft)
19.04.2012 15:10 18,4 C 15,0 C 2,1 UV-I 4,4 C 41 % 51 % 100 % 991,5 hPa 0,0 l/m 4,8 km/h (1 Bft) 2 min 0 min 10,8 km/h (2 Bft)
19.04.2012 15:12 18,4 C 14,9 C 2,1 UV-I 4,1 C 41 % 50 % 100 % 991,5 hPa 0,0 l/m 6,8 km/h (2 Bft) 2 min 0 min 21,7 km/h (4 Bft)
19.04.2012 15:14 18,4 C 14,8 C 1,1 UV-I 3,9 C 40 % 50 % 100 % 991,5 hPa 0,0 l/m 7,2 km/h (2 Bft) 2 min 0 min 21,7 km/h (4 Bft)
19.04.2012 15:16 18,4 C 14,7 C 1,1 UV-I 3,3 C 40 % 50 % 94 % 991,5 hPa 0,0 l/m 7,6 km/h (2 Bft) 2 min 0 min 15,3 km/h (3 Bft)
19.04.2012 15:18 18,4 C 14,6 C 1,5 UV-I 3,0 C 40 % 51 % 86 % 991,5 hPa 0,0 l/m 8,4 km/h (2 Bft) 2 min 0 min 6,8 km/h (2 Bft)
19.04.2012 15:20 18,4 C 14,6 C 1,5 UV-I 3,2 C 40 % 51 % 91 % 991,5 hPa 0,0 l/m 8,0 km/h (2 Bft) 2 min 0 min 9,2 km/h (2 Bft)
19.04.2012 15:22 18,4 C 14,6 C 1,5 UV-I 3,5 C 40 % 51 % 100 % 991,5 hPa 0,0 l/m 8,4 km/h (2 Bft) 2 min 0 min 9,2 km/h (2 Bft)
19.04.2012 15:24 18,4 C 14,6 C 1,9 UV-I 3,4 C 40 % 51 % 97 % 991,7 hPa 0,0 l/m 7,6 km/h (2 Bft) 2 min 0 min 18,1 km/h (3 Bft)
19.04.2012 15:26 18,4 C 14,7 C 1,9 UV-I 2,9 C 40 % 51 % 83 % 991,7 hPa 0,0 l/m 7,6 km/h (2 Bft) 2 min 0 min 18,1 km/h (3 Bft)
19.04.2012 15:28 18,5 C 14,6 C 0,8 UV-I 2,6 C 40 % 52 % 74 % 991,7 hPa 0,0 l/m 8,0 km/h (2 Bft) 0 min 0 min 8,0 km/h (2 Bft)
19.04.2012 15:30 18,4 C 14,5 C 0,8 UV-I 2,4 C 40 % 51 % 69 % 991,7 hPa 0,0 l/m 7,6 km/h (2 Bft) 0 min 0 min 6,0 km/h (2 Bft)
19.04.2012 15:32 18,4 C 14,5 C 0,8 UV-I 2,2 C 40 % 52 % 63 % 991,7 hPa 0,0 l/m 6,4 km/h (2 Bft) 0 min 0 min 6,0 km/h (2 Bft)
19.04.2012 15:34 18,4 C 14,4 C 0,8 UV-I 2,2 C 40 % 52 % 63 % 991,7 hPa 0,0 l/m 6,0 km/h (2 Bft) 0 min 0 min 7,2 km/h (2 Bft)
19.04.2012 15:36 18,4 C 14,4 C 0,8 UV-I 2,2 C 40 % 51 % 63 % 991,7 hPa 0,0 l/m 4,8 km/h (1 Bft) 0 min 0 min 7,2 km/h (2 Bft)
19.04.2012 15:38 18,4 C 14,4 C 1,0 UV-I 2,2 C 40 % 52 % 63 % 991,7 hPa 0,0 l/m 4,4 km/h (1 Bft) 0 min 0 min 4,4 km/h (1 Bft)
19.04.2012 15:40 18,4 C 14,4 C 1,0 UV-I 2,4 C 40 % 51 % 69 % 991,7 hPa 0,0 l/m 5,2 km/h (1 Bft) 0 min 0 min 10,8 km/h (2 Bft)
19.04.2012 15:42 18,4 C 14,5 C 1,0 UV-I 2,3 C 40 % 51 % 66 % 991,7 hPa 0,0 l/m 5,6 km/h (1 Bft) 0 min 0 min 10,8 km/h (2 Bft)
19.04.2012 15:44 18,4 C 14,5 C 0,8 UV-I 2,2 C 40 % 51 % 63 % 991,1 hPa 0,0 l/m 6,0 km/h (2 Bft) 0 min 0 min 7,6 km/h (2 Bft)
19.04.2012 15:46 18,4 C 14,4 C 0,8 UV-I 2,2 C 40 % 52 % 63 % 991,1 hPa 0,0 l/m 6,0 km/h (2 Bft) 0 min 0 min 20,1 km/h (4 Bft)
19.04.2012 15:48 18,4 C 14,5 C 0,7 UV-I 2,0 C 40 % 52 % 57 % 991,1 hPa 0,0 l/m 6,8 km/h (2 Bft) 0 min 0 min 20,1 km/h (4 Bft)
19.04.2012 15:50 18,4 C 14,5 C 0,7 UV-I 2,0 C 40 % 51 % 57 % 991,1 hPa 0,0 l/m 6,4 km/h (2 Bft) 0 min 0 min 9,2 km/h (2 Bft)
19.04.2012 15:52 18,4 C 14,5 C 0,7 UV-I 2,0 C 40 % 51 % 57 % 991,1 hPa 0,0 l/m 6,4 km/h (2 Bft) 0 min 0 min 9,6 km/h (2 Bft)
19.04.2012 15:54 18,4 C 14,5 C 0,8 UV-I 2,0 C 40 % 51 % 57 % 991,1 hPa 0,0 l/m 6,4 km/h (2 Bft) 0 min 0 min 9,6 km/h (2 Bft)
19.04.2012 15:56 18,4 C 14,5 C 0,8 UV-I 2,1 C 40 % 52 % 60 % 991,1 hPa 0,0 l/m 5,2 km/h (1 Bft) 0 min 0 min 5,2 km/h (1 Bft)
19.04.2012 15:58 18,4 C 14,6 C 1,3 UV-I 2,3 C 40 % 52 % 66 % 991,1 hPa 0,0 l/m 4,4 km/h (1 Bft) 0 min 0 min 5,6 km/h (1 Bft)
19.04.2012 16:00 18,2 C 14,6 C 1,3 UV-I 2,5 C 40 % 52 % 71 % 991,1 hPa 0,0 l/m 4,4 km/h (1 Bft) 0 min 0 min 10,4 km/h (2 Bft)
19.04.2012 16:02 18,4 C 14,7 C 1,3 UV-I 2,7 C 40 % 52 % 77 % 991,1 hPa 0,0 l/m 4,0 km/h (1 Bft) 0 min 0 min 10,4 km/h (2 Bft)
19.04.2012 16:04 18,4 C 14,9 C 2,4 UV-I 3,0 C 40 % 53 % 86 % 990,4 hPa 0,0 l/m 5,2 km/h (1 Bft) 2 min 0 min 13,7 km/h (3 Bft)
19.04.2012 16:06 18,4 C 14,9 C 2,4 UV-I 3,5 C 40 % 53 % 100 % 990,4 hPa 0,0 l/m 6,0 km/h (2 Bft) 2 min 0 min 14,1 km/h (3 Bft)
19.04.2012 16:08 18,4 C 15,0 C 3,1 UV-I 3,5 C 40 % 54 % 100 % 990,4 hPa 0,0 l/m 7,2 km/h (2 Bft) 2 min 0 min 14,1 km/h (3 Bft)
19.04.2012 16:10 18,5 C 15,0 C 3,1 UV-I 3,8 C 40 % 54 % 100 % 990,4 hPa 0,0 l/m 8,4 km/h (2 Bft) 2 min 0 min 15,3 km/h (3 Bft)
19.04.2012 16:12 18,5 C 14,9 C 3,1 UV-I 4,0 C 40 % 54 % 100 % 990,4 hPa 0,0 l/m 9,6 km/h (2 Bft) 2 min 0 min 23,7 km/h (4 Bft)
19.04.2012 16:14 18,5 C 14,8 C 2,7 UV-I 4,1 C 40 % 53 % 100 % 990,4 hPa 0,0 l/m 10,0 km/h (2 Bft) 2 min 0 min 23,7 km/h (4 Bft)
19.04.2012 16:16 18,6 C 14,7 C 2,7 UV-I 4,3 C 40 % 54 % 100 % 990,4 hPa 0,0 l/m 8,4 km/h (2 Bft) 2 min 0 min 9,6 km/h (2 Bft)
19.04.2012 16:18 18,6 C 14,7 C 2,4 UV-I 4,2 C 40 % 54 % 100 % 990,4 hPa 0,0 l/m 8,8 km/h (2 Bft) 2 min 0 min 9,2 km/h (2 Bft)
19.04.2012 16:20 18,6 C 14,7 C 2,4 UV-I 4,1 C 40 % 54 % 100 % 990,4 hPa 0,0 l/m 8,0 km/h (2 Bft) 2 min 0 min 9,2 km/h (2 Bft)
19.04.2012 16:22 18,6 C 14,6 C 2,4 UV-I 3,9 C 40 % 54 % 100 % 990,4 hPa 0,0 l/m 7,2 km/h (2 Bft) 2 min 0 min 8,0 km/h (2 Bft)
19.04.2012 16:24 18,6 C 14,6 C 1,9 UV-I 3,7 C 40 % 54 % 100 % 991,6 hPa 0,0 l/m 6,4 km/h (2 Bft) 2 min 0 min 7,6 km/h (2 Bft)
19.04.2012 16:26 18,6 C 14,7 C 1,9 UV-I 3,8 C 40 % 55 % 100 % 991,6 hPa 0,0 l/m 6,0 km/h (2 Bft) 2 min 0 min 8,0 km/h (2 Bft)
19.04.2012 16:28 18,6 C 14,6 C 1,8 UV-I 3,9 C 40 % 55 % 100 % 991,6 hPa 0,0 l/m 5,6 km/h (1 Bft) 2 min 0 min 14,5 km/h (3 Bft)
19.04.2012 16:30 18,6 C 14,7 C 1,8 UV-I 3,7 C 40 % 55 % 100 % 991,6 hPa 0,0 l/m 5,6 km/h (1 Bft) 2 min 0 min 14,5 km/h (3 Bft)
19.04.2012 16:32 18,6 C 14,7 C 1,8 UV-I 3,5 C 40 % 55 % 100 % 991,6 hPa 0,0 l/m 6,0 km/h (2 Bft) 2 min 0 min 10,8 km/h (2 Bft)
19.04.2012 16:34 18,7 C 14,7 C 2,1 UV-I 3,5 C 40 % 55 % 100 % 991,6 hPa 0,0 l/m 6,8 km/h (2 Bft) 2 min 0 min 11,2 km/h (2 Bft)
19.04.2012 16:36 18,7 C 14,7 C 2,1 UV-I 3,6 C 40 % 55 % 100 % 991,6 hPa 0,0 l/m 6,8 km/h (2 Bft) 2 min 0 min 11,6 km/h (2 Bft)
19.04.2012 16:38 18,8 C 14,7 C 2,7 UV-I 3,9 C 40 % 54 % 100 % 991,6 hPa 0,0 l/m 8,0 km/h (2 Bft) 2 min 0 min 12,0 km/h (2 Bft)
19.04.2012 16:40 18,8 C 14,5 C 2,7 UV-I 3,9 C 40 % 54 % 100 % 991,6 hPa 0,0 l/m 8,4 km/h (2 Bft) 2 min 0 min 12,0 km/h (2 Bft)
19.04.2012 16:42 18,8 C 14,6 C 2,7 UV-I 3,7 C 40 % 55 % 100 % 991,6 hPa 0,0 l/m 8,0 km/h (2 Bft) 2 min 0 min 10,8 km/h (2 Bft)
19.04.2012 16:44 18,8 C 14,7 C 2,3 UV-I 4,0 C 40 % 55 % 100 % 992,1 hPa 0,0 l/m 6,8 km/h (2 Bft) 2 min 0 min 10,8 km/h (2 Bft)
19.04.2012 16:46 18,8 C 14,6 C 2,3 UV-I 4,2 C 40 % 54 % 100 % 992,1 hPa 0,0 l/m 6,8 km/h (2 Bft) 2 min 0 min 10,8 km/h (2 Bft)
19.04.2012 16:48 18,9 C 14,7 C 1,8 UV-I 4,0 C 40 % 54 % 100 % 992,1 hPa 0,0 l/m 7,2 km/h (2 Bft) 2 min 0 min 18,5 km/h (3 Bft)
19.04.2012 16:50 18,9 C 14,7 C 1,8 UV-I 3,7 C 40 % 54 % 100 % 992,1 hPa 0,0 l/m 6,8 km/h (2 Bft) 2 min 0 min 18,5 km/h (3 Bft)
19.04.2012 16:52 18,9 C 14,5 C 1,8 UV-I 3,6 C 40 % 54 % 100 % 992,1 hPa 0,0 l/m 7,6 km/h (2 Bft) 2 min 0 min 15,3 km/h (3 Bft)
19.04.2012 16:54 18,9 C 14,5 C 2,2 UV-I 3,6 C 40 % 55 % 100 % 992,1 hPa 0,0 l/m 8,4 km/h (2 Bft) 2 min 0 min 18,1 km/h (3 Bft)
19.04.2012 16:56 18,9 C 14,7 C 2,2 UV-I 3,8 C 40 % 56 % 100 % 992,1 hPa 0,0 l/m 9,2 km/h (2 Bft) 2 min 0 min 18,1 km/h (3 Bft)
19.04.2012 16:58 19,0 C 14,7 C 2,3 UV-I 3,8 C 40 % 55 % 100 % 992,1 hPa 0,0 l/m 9,2 km/h (2 Bft) 2 min 0 min 18,1 km/h (3 Bft)
19.04.2012 17:00 19,0 C 14,5 C 2,3 UV-I 3,7 C 39 % 55 % 100 % 992,1 hPa 0,0 l/m 8,4 km/h (2 Bft) 2 min 0 min 17,7 km/h (3 Bft)
19.04.2012 17:02 19,0 C 14,5 C 2,3 UV-I 3,1 C 40 % 56 % 89 % 992,1 hPa 0,0 l/m 8,8 km/h (2 Bft) 2 min 0 min 17,7 km/h (3 Bft)
19.04.2012 17:04 19,0 C 14,3 C 1,0 UV-I 2,9 C 40 % 56 % 83 % 992,2 hPa 0,0 l/m 8,0 km/h (2 Bft) 2 min 0 min 4,0 km/h (1 Bft)
19.04.2012 17:06 19,0 C 14,3 C 1,0 UV-I 2,5 C 40 % 56 % 71 % 992,2 hPa 0,0 l/m 7,6 km/h (2 Bft) 0 min 0 min 8,8 km/h (2 Bft)
19.04.2012 17:08 19,0 C 14,4 C 2,8 UV-I 2,5 C 40 % 56 % 71 % 992,2 hPa 0,0 l/m 6,8 km/h (2 Bft) 0 min 0 min 8,8 km/h (2 Bft)
19.04.2012 17:10 19,0 C 14,5 C 2,8 UV-I 2,9 C 40 % 56 % 83 % 992,2 hPa 0,0 l/m 6,4 km/h (2 Bft) 2 min 0 min 4,4 km/h (1 Bft)
19.04.2012 17:12 19,1 C 14,5 C 2,8 UV-I 3,7 C 40 % 57 % 100 % 992,2 hPa 0,0 l/m 4,4 km/h (1 Bft) 2 min 0 min 5,6 km/h (1 Bft)
19.04.2012 17:14 19,2 C 14,7 C 3,9 UV-I 4,3 C 40 % 57 % 100 % 992,2 hPa 0,0 l/m 4,0 km/h (1 Bft) 2 min 0 min 7,6 km/h (2 Bft)
19.04.2012 17:16 19,2 C 14,8 C 3,9 UV-I 4,7 C 40 % 56 % 100 % 992,2 hPa 0,0 l/m 4,4 km/h (1 Bft) 2 min 0 min 7,6 km/h (2 Bft)
19.04.2012 17:18 19,2 C 15,0 C 2,5 UV-I 4,9 C 40 % 56 % 100 % 992,2 hPa 0,0 l/m 4,4 km/h (1 Bft) 2 min 0 min 7,6 km/h (2 Bft)
19.04.2012 17:20 19,3 C 15,2 C 2,5 UV-I 4,8 C 40 % 56 % 100 % 992,2 hPa 0,0 l/m 5,2 km/h (1 Bft) 2 min 0 min 19,7 km/h (3 Bft)
19.04.2012 17:22 19,2 C 15,1 C 2,5 UV-I 4,7 C 40 % 55 % 100 % 992,2 hPa 0,0 l/m 7,2 km/h (2 Bft) 2 min 0 min 19,7 km/h (3 Bft)
19.04.2012 17:24 19,4 C 15,1 C 3,1 UV-I 4,5 C 39 % 55 % 100 % 992,6 hPa 0,0 l/m 8,4 km/h (2 Bft) 2 min 0 min 13,3 km/h (3 Bft)
19.04.2012 17:26 19,4 C 15,0 C 3,1 UV-I 4,4 C 39 % 55 % 100 % 992,6 hPa 0,0 l/m 8,8 km/h (2 Bft) 2 min 0 min 11,2 km/h (2 Bft)
19.04.2012 17:28 19,5 C 15,1 C 2,9 UV-I 4,1 C 39 % 55 % 100 % 992,6 hPa 0,0 l/m 8,8 km/h (2 Bft) 2 min 0 min 11,2 km/h (2 Bft)
19.04.2012 17:30 19,5 C 15,1 C 2,9 UV-I 3,9 C 39 % 56 % 100 % 992,6 hPa 0,0 l/m 8,4 km/h (2 Bft) 2 min 0 min 6,4 km/h (2 Bft)
19.04.2012 17:32 19,5 C 15,1 C 2,9 UV-I 3,6 C 39 % 56 % 100 % 992,6 hPa 0,0 l/m 6,4 km/h (2 Bft) 2 min 0 min 0,0 km/h (0 Bft)
19.04.2012 17:34 19,5 C 14,9 C 1,1 UV-I 3,2 C 39 % 55 % 91 % 992,6 hPa 0,0 l/m 6,0 km/h (2 Bft) 2 min 0 min 5,2 km/h (1 Bft)
19.04.2012 17:36 19,5 C 14,9 C 1,1 UV-I 2,6 C 39 % 56 % 74 % 992,6 hPa 0,0 l/m 6,0 km/h (2 Bft) 0 min 0 min 12,0 km/h (2 Bft)
19.04.2012 17:38 19,5 C 14,7 C 0,7 UV-I 2,3 C 39 % 55 % 66 % 992,6 hPa 0,0 l/m 5,6 km/h (1 Bft) 0 min 0 min 12,0 km/h (2 Bft)
19.04.2012 17:40 19,5 C 14,4 C 0,7 UV-I 2,0 C 39 % 55 % 57 % 992,6 hPa 0,0 l/m 5,2 km/h (1 Bft) 0 min 0 min 7,6 km/h (2 Bft)
19.04.2012 17:42 19,4 C 14,3 C 0,7 UV-I 1,7 C 39 % 55 % 49 % 992,6 hPa 0,0 l/m 5,2 km/h (1 Bft) 0 min 0 min 10,0 km/h (2 Bft)
19.04.2012 17:44 19,4 C 14,3 C 0,4 UV-I 1,4 C 39 % 56 % 40 % 991,9 hPa 0,0 l/m 4,8 km/h (1 Bft) 0 min 0 min 10,0 km/h (2 Bft)
19.04.2012 17:46 19,4 C 14,2 C 0,4 UV-I 1,1 C 39 % 56 % 31 % 991,9 hPa 0,0 l/m 4,4 km/h (1 Bft) 0 min 0 min 7,2 km/h (2 Bft)
19.04.2012 17:48 19,4 C 14,2 C 0,3 UV-I 0,8 C 39 % 56 % 23 % 991,9 hPa 0,0 l/m 4,0 km/h (1 Bft) 0 min 0 min 8,0 km/h (2 Bft)
19.04.2012 17:50 19,2 C 14,0 C 0,3 UV-I 0,8 C 39 % 56 % 23 % 991,9 hPa 0,0 l/m 3,2 km/h (1 Bft) 0 min 0 min 8,0 km/h (2 Bft)
19.04.2012 17:52 19,3 C 14,0 C 0,3 UV-I 0,7 C 39 % 56 % 20 % 991,9 hPa 0,0 l/m 3,6 km/h (1 Bft) 0 min 0 min 4,8 km/h (1 Bft)
19.04.2012 17:54 19,2 C 14,1 C 0,4 UV-I 0,6 C 39 % 56 % 17 % 991,9 hPa 0,0 l/m 2,8 km/h (1 Bft) 0 min 0 min 0,0 km/h (0 Bft)
19.04.2012 17:56 19,2 C 14,1 C 0,4 UV-I 0,7 C 39 % 56 % 20 % 991,9 hPa 0,0 l/m 2,8 km/h (1 Bft) 0 min 0 min 9,6 km/h (2 Bft)
19.04.2012 17:58 19,2 C 14,1 C 0,6 UV-I 0,9 C 39 % 56 % 26 % 991,9 hPa 0,0 l/m 3,2 km/h (1 Bft) 0 min 0 min 9,6 km/h (2 Bft)
19.04.2012 18:00 19,2 C 14,1 C 0,6 UV-I 0,9 C 39 % 57 % 26 % 991,9 hPa 0,0 l/m 3,2 km/h (1 Bft) 0 min 0 min 12,0 km/h (2 Bft)
19.04.2012 18:02 19,2 C 14,0 C 0,6 UV-I 0,9 C 39 % 56 % 26 % 991,9 hPa 0,0 l/m 4,0 km/h (1 Bft) 0 min 0 min 12,0 km/h (2 Bft)
19.04.2012 18:04 19,1 C 14,0 C 0,3 UV-I 0,8 C 39 % 56 % 23 % 991,5 hPa 0,0 l/m 4,0 km/h (1 Bft) 0 min 0 min 6,4 km/h (2 Bft)
19.04.2012 18:06 19,1 C 14,0 C 0,3 UV-I 0,7 C 39 % 56 % 20 % 991,5 hPa 0,0 l/m 4,4 km/h (1 Bft) 0 min 0 min 6,4 km/h (2 Bft)
19.04.2012 18:08 19,1 C 13,9 C 0,3 UV-I 0,8 C 39 % 56 % 23 % 991,5 hPa 0,0 l/m 4,4 km/h (1 Bft) 0 min 0 min 7,2 km/h (2 Bft)
19.04.2012 18:10 19,0 C 13,9 C 0,3 UV-I 0,8 C 39 % 57 % 23 % 991,5 hPa 0,0 l/m 4,4 km/h (1 Bft) 0 min 0 min 7,6 km/h (2 Bft)
19.04.2012 18:12 19,0 C 13,9 C 0,3 UV-I 0,8 C 39 % 57 % 23 % 991,5 hPa 0,0 l/m 4,8 km/h (1 Bft) 0 min 0 min 7,6 km/h (2 Bft)
19.04.2012 18:14 19,0 C 13,9 C 0,4 UV-I 0,7 C 39 % 57 % 20 % 991,5 hPa 0,0 l/m 4,4 km/h (1 Bft) 0 min 0 min 4,8 km/h (1 Bft)
19.04.2012 18:16 19,0 C 13,9 C 0,4 UV-I 0,8 C 39 % 57 % 23 % 991,5 hPa 0,0 l/m 4,8 km/h (1 Bft) 0 min 0 min 0,0 km/h (0 Bft)
19.04.2012 18:18 18,9 C 13,9 C 0,5 UV-I 0,7 C 39 % 56 % 20 % 991,5 hPa 0,0 l/m 4,4 km/h (1 Bft) 0 min 0 min 0,0 km/h (0 Bft)
19.04.2012 18:20 18,9 C 13,7 C 0,5 UV-I 1,0 C 39 % 56 % 29 % 991,5 hPa 0,0 l/m 4,8 km/h (1 Bft) 0 min 0 min 0,0 km/h (0 Bft)
19.04.2012 18:22 18,9 C 13,7 C 0,5 UV-I 1,0 C 39 % 57 % 29 % 991,5 hPa 0,0 l/m 4,0 km/h (1 Bft) 0 min 0 min 4,4 km/h (1 Bft)
19.04.2012 18:24 18,8 C 13,7 C 0,4 UV-I 0,9 C 39 % 56 % 26 % 991,2 hPa 0,0 l/m 4,4 km/h (1 Bft) 0 min 0 min 6,4 km/h (2 Bft)
19.04.2012 18:26 18,8 C 13,7 C 0,4 UV-I 0,9 C 39 % 56 % 26 % 991,2 hPa 0,0 l/m 4,4 km/h (1 Bft) 0 min 0 min 8,8 km/h (2 Bft)
19.04.2012 18:28 18,8 C 13,9 C 0,4 UV-I 0,6 C 39 % 56 % 17 % 991,2 hPa 0,0 l/m 4,8 km/h (1 Bft) 0 min 0 min 8,8 km/h (2 Bft)
19.04.2012 18:30 18,8 C 13,9 C 0,4 UV-I 0,6 C 39 % 56 % 17 % 991,2 hPa 0,0 l/m 4,8 km/h (1 Bft) 0 min 0 min 7,6 km/h (2 Bft)
19.04.2012 18:32 18,8 C 13,8 C 0,4 UV-I 0,7 C 39 % 56 % 20 % 991,2 hPa 0,0 l/m 4,8 km/h (1 Bft) 0 min 0 min 13,3 km/h (3 Bft)
19.04.2012 18:34 18,8 C 13,9 C 0,4 UV-I 0,7 C 39 % 55 % 20 % 991,2 hPa 0,0 l/m 5,2 km/h (1 Bft) 0 min 0 min 18,9 km/h (3 Bft)
19.04.2012 18:36 18,7 C 13,9 C 0,4 UV-I 0,7 C 39 % 56 % 20 % 991,2 hPa 0,0 l/m 5,2 km/h (1 Bft) 0 min 0 min 18,9 km/h (3 Bft)
19.04.2012 18:38 18,7 C 13,9 C 0,3 UV-I 0,7 C 40 % 56 % 20 % 991,2 hPa 0,0 l/m 4,4 km/h (1 Bft) 0 min 0 min 4,0 km/h (1 Bft)
19.04.2012 18:40 18,7 C 13,9 C 0,3 UV-I 0,7 C 39 % 56 % 20 % 991,2 hPa 0,0 l/m 4,8 km/h (1 Bft) 0 min 0 min 11,2 km/h (2 Bft)
19.04.2012 18:42 18,7 C 13,9 C 0,3 UV-I 0,6 C 40 % 56 % 17 % 991,2 hPa 0,0 l/m 5,6 km/h (1 Bft) 0 min 0 min 11,2 km/h (2 Bft)
19.04.2012 18:44 18,7 C 13,8 C 0,3 UV-I 0,7 C 40 % 56 % 20 % 991,8 hPa 0,0 l/m 4,8 km/h (1 Bft) 0 min 0 min 8,8 km/h (2 Bft)
19.04.2012 18:46 18,6 C 13,9 C 0,3 UV-I 0,5 C 40 % 56 % 14 % 991,8 hPa 0,0 l/m 4,4 km/h (1 Bft) 0 min 0 min 8,8 km/h (2 Bft)
19.04.2012 18:48 18,6 C 13,8 C 0,3 UV-I 0,5 C 40 % 56 % 14 % 991,8 hPa 0,0 l/m 4,8 km/h (1 Bft) 0 min 0 min 18,1 km/h (3 Bft)
19.04.2012 18:50 18,6 C 13,7 C 0,3 UV-I 0,5 C 40 % 56 % 14 % 991,8 hPa 0,0 l/m 6,0 km/h (2 Bft) 0 min 0 min 18,1 km/h (3 Bft)
19.04.2012 18:52 18,6 C 13,8 C 0,3 UV-I 0,3 C 40 % 56 % 9 % 991,8 hPa 0,0 l/m 6,0 km/h (2 Bft) 0 min 0 min 9,2 km/h (2 Bft)
19.04.2012 18:54 18,6 C 13,7 C 0,2 UV-I 0,3 C 39 % 55 % 9 % 991,8 hPa 0,0 l/m 6,4 km/h (2 Bft) 0 min 0 min 9,2 km/h (2 Bft)
19.04.2012 18:56 18,6 C 13,6 C 0,2 UV-I 0,4 C 39 % 56 % 11 % 991,8 hPa 0,0 l/m 6,8 km/h (2 Bft) 0 min 0 min 6,0 km/h (2 Bft)
19.04.2012 18:58 18,6 C 13,7 C 0,2 UV-I 0,3 C 40 % 56 % 9 % 991,8 hPa 0,0 l/m 7,6 km/h (2 Bft) 0 min 0 min 12,8 km/h (3 Bft)
19.04.2012 19:00 18,6 C 13,7 C 0,2 UV-I 0,3 C 39 % 56 % 9 % 991,8 hPa 0,0 l/m 6,8 km/h (2 Bft) 0 min 0 min 12,8 km/h (3 Bft)
19.04.2012 19:02 18,5 C 13,7 C 0,2 UV-I 0,3 C 39 % 56 % 9 % 991,8 hPa 0,0 l/m 7,2 km/h (2 Bft) 0 min 0 min 7,6 km/h (2 Bft)
19.04.2012 19:04 18,5 C 13,7 C 0,2 UV-I 0,3 C 39 % 56 % 9 % 991,2 hPa 0,0 l/m 6,4 km/h (2 Bft) 0 min 0 min 8,8 km/h (2 Bft)
19.04.2012 19:06 18,5 C 13,7 C 0,2 UV-I 0,4 C 39 % 56 % 11 % 991,2 hPa 0,0 l/m 6,4 km/h (2 Bft) 0 min 0 min 10,0 km/h (2 Bft)
19.04.2012 19:08 18,5 C 13,7 C 0,1 UV-I 0,3 C 39 % 56 % 9 % 991,2 hPa 0,0 l/m 6,4 km/h (2 Bft) 0 min 0 min 10,0 km/h (2 Bft)
19.04.2012 19:10 18,5 C 13,6 C 0,1 UV-I 0,4 C 39 % 56 % 11 % 991,2 hPa 0,0 l/m 6,0 km/h (2 Bft) 0 min 0 min 5,2 km/h (1 Bft)
19.04.2012 19:12 18,5 C 13,6 C 0,1 UV-I 0,2 C 39 % 56 % 6 % 991,2 hPa 0,0 l/m 5,2 km/h (1 Bft) 0 min 0 min 8,0 km/h (2 Bft)
19.04.2012 19:14 18,5 C 13,6 C 0,1 UV-I 0,1 C 39 % 56 % 3 % 991,2 hPa 0,0 l/m 4,4 km/h (1 Bft) 0 min 0 min 8,0 km/h (2 Bft)
19.04.2012 19:16 18,5 C 13,6 C 0,1 UV-I 0,0 C 39 % 56 % 0 % 991,2 hPa 0,0 l/m 4,4 km/h (1 Bft) 0 min 0 min 7,6 km/h (2 Bft)
19.04.2012 19:18 18,4 C 13,7 C 0,0 UV-I 0,0 C 39 % 56 % 0 % 991,2 hPa 0,0 l/m 3,6 km/h (1 Bft) 0 min 0 min 8,8 km/h (2 Bft)
19.04.2012 19:20 18,4 C 13,6 C 0,0 UV-I 0,0 C 39 % 56 % 0 % 991,2 hPa 0,0 l/m 2,8 km/h (1 Bft) 0 min 0 min 8,8 km/h (2 Bft)
19.04.2012 19:22 18,4 C 13,6 C 0,0 UV-I 0,0 C 39 % 56 % 0 % 991,2 hPa 0,0 l/m 2,8 km/h (1 Bft) 0 min 0 min 0,0 km/h (0 Bft)
19.04.2012 19:24 18,4 C 13,5 C 0,0 UV-I 0,0 C 39 % 56 % 0 % 991,3 hPa 0,0 l/m 3,2 km/h (1 Bft) 0 min 0 min 0,0 km/h (0 Bft)
19.04.2012 19:26 18,4 C 13,4 C 0,0 UV-I 0,0 C 39 % 56 % 0 % 991,3 hPa 0,0 l/m 2,0 km/h (1 Bft) 0 min 0 min 0,0 km/h (0 Bft)
19.04.2012 19:28 18,4 C 13,5 C 0,0 UV-I 0,0 C 39 % 56 % 0 % 991,3 hPa 0,0 l/m 2,0 km/h (1 Bft) 0 min 0 min 4,0 km/h (1 Bft)
19.04.2012 19:30 18,2 C 13,4 C 0,0 UV-I 0,0 C 39 % 57 % 0 % 991,3 hPa 0,0 l/m 1,2 km/h (1 Bft) 0 min 0 min 4,0 km/h (1 Bft)
19.04.2012 19:32 18,2 C 13,3 C 0,0 UV-I 0,0 C 39 % 57 % 0 % 991,3 hPa 0,0 l/m 0,8 km/h (0 Bft) 0 min 0 min 4,0 km/h (1 Bft)
19.04.2012 19:34 18,3 C 13,3 C 0,0 UV-I 0,0 C 39 % 57 % 0 % 991,3 hPa 0,0 l/m 0,8 km/h (0 Bft) 0 min 0 min 4,0 km/h (1 Bft)
19.04.2012 19:36 18,3 C 13,3 C 0,0 UV-I 0,0 C 39 % 57 % 0 % 991,3 hPa 0,0 l/m 0,4 km/h (0 Bft) 0 min 0 min 4,0 km/h (1 Bft)
19.04.2012 19:38 18,2 C 13,3 C 0,0 UV-I 0,0 C 39 % 57 % 0 % 991,3 hPa 0,0 l/m 0,8 km/h (0 Bft) 0 min 0 min 10,0 km/h (2 Bft)
19.04.2012 19:40 18,2 C 13,2 C 0,0 UV-I 0,0 C 39 % 57 % 0 % 991,3 hPa 0,0 l/m 1,2 km/h (1 Bft) 0 min 0 min 10,0 km/h (2 Bft)
19.04.2012 19:42 18,2 C 13,2 C 0,0 UV-I 0,0 C 39 % 57 % 0 % 991,3 hPa 0,0 l/m 1,2 km/h (1 Bft) 0 min 0 min 8,4 km/h (2 Bft)
19.04.2012 19:44 18,2 C 13,2 C 0,0 UV-I 0,0 C 39 % 57 % 0 % 991,4 hPa 0,0 l/m 1,2 km/h (1 Bft) 0 min 0 min 11,6 km/h (2 Bft)
19.04.2012 19:46 18,2 C 13,2 C 0,0 UV-I 0,0 C 40 % 57 % 0 % 991,4 hPa 0,0 l/m 2,0 km/h (1 Bft) 0 min 0 min 11,6 km/h (2 Bft)
19.04.2012 19:48 18,1 C 13,2 C 0,0 UV-I 0,0 C 40 % 57 % 0 % 991,4 hPa 0,0 l/m 2,0 km/h (1 Bft) 0 min 0 min 5,2 km/h (1 Bft)
19.04.2012 19:50 18,1 C 13,1 C 0,0 UV-I 0,0 C 40 % 57 % 0 % 991,4 hPa 0,0 l/m 2,0 km/h (1 Bft) 0 min 0 min 5,2 km/h (1 Bft)
19.04.2012 19:52 18,1 C 13,1 C 0,0 UV-I 0,0 C 40 % 58 % 0 % 991,4 hPa 0,0 l/m 2,4 km/h (1 Bft) 0 min 0 min 0,0 km/h (0 Bft)
19.04.2012 19:54 18,0 C 13,1 C 0,0 UV-I 0,0 C 40 % 58 % 0 % 991,4 hPa 0,0 l/m 2,0 km/h (1 Bft) 0 min 0 min 0,0 km/h (0 Bft)
19.04.2012 19:56 18,0 C 13,1 C 0,0 UV-I 0,0 C 40 % 58 % 0 % 991,4 hPa 0,0 l/m 1,2 km/h (1 Bft) 0 min 0 min 0,0 km/h (0 Bft)
19.04.2012 19:58 18,0 C 13,1 C 0,0 UV-I 0,0 C 40 % 58 % 0 % 991,4 hPa 0,0 l/m 1,6 km/h (1 Bft) 0 min 0 min 0,0 km/h (0 Bft)
19.04.2012 20:00 18,0 C 13,1 C 0,0 UV-I 0,0 C 40 % 59 % 0 % 991,4 hPa 0,0 l/m 1,2 km/h (1 Bft) 0 min 0 min 4,8 km/h (1 Bft)
19.04.2012 20:02 18,0 C 12,9 C 0,0 UV-I 0,0 C 40 % 59 % 0 % 991,4 hPa 0,0 l/m 0,8 km/h (0 Bft) 0 min 0 min 4,8 km/h (1 Bft)
19.04.2012 20:04 18,0 C 12,9 C 0,0 UV-I 0,0 C 40 % 60 % 0 % 991,3 hPa 0,0 l/m 0,8 km/h (0 Bft) 0 min 0 min 0,0 km/h (0 Bft)
19.04.2012 20:06 18,0 C 12,9 C 0,0 UV-I 0,0 C 41 % 60 % 0 % 991,3 hPa 0,0 l/m 1,2 km/h (1 Bft) 0 min 0 min 8,8 km/h (2 Bft)
19.04.2012 20:08 18,0 C 12,9 C 0,0 UV-I 0,0 C 41 % 61 % 0 % 991,3 hPa 0,0 l/m 2,4 km/h (1 Bft) 0 min 0 min 8,8 km/h (2 Bft)
19.04.2012 20:10 18,0 C 12,9 C 0,0 UV-I 0,0 C 41 % 61 % 0 % 991,3 hPa 0,0 l/m 3,2 km/h (1 Bft) 0 min 0 min 6,0 km/h (2 Bft)
19.04.2012 20:12 17,9 C 12,8 C 0,0 UV-I 0,0 C 41 % 61 % 0 % 991,3 hPa 0,0 l/m 2,8 km/h (1 Bft) 0 min 0 min 4,8 km/h (1 Bft)
19.04.2012 20:14 17,9 C 12,7 C 0,0 UV-I 0,0 C 41 % 62 % 0 % 991,3 hPa 0,0 l/m 3,6 km/h (1 Bft) 0 min 0 min 6,8 km/h (2 Bft)
19.04.2012 20:16 17,9 C 12,6 C 0,0 UV-I 0,0 C 41 % 62 % 0 % 991,3 hPa 0,0 l/m 3,6 km/h (1 Bft) 0 min 0 min 6,8 km/h (2 Bft)
19.04.2012 20:18 17,9 C 12,5 C 0,0 UV-I 0,0 C 41 % 62 % 0 % 991,3 hPa 0,0 l/m 3,2 km/h (1 Bft) 0 min 0 min 4,0 km/h (1 Bft)
19.04.2012 20:20 17,8 C 12,5 C 0,0 UV-I 0,0 C 41 % 62 % 0 % 991,3 hPa 0,0 l/m 2,0 km/h (1 Bft) 0 min 0 min 4,8 km/h (1 Bft)
19.04.2012 20:22 17,8 C 12,5 C 0,0 UV-I 0,0 C 41 % 63 % 0 % 991,3 hPa 0,0 l/m 2,0 km/h (1 Bft) 0 min 0 min 4,8 km/h (1 Bft)
19.04.2012 20:24 17,8 C 12,4 C 0,0 UV-I 0,0 C 41 % 63 % 0 % 991,4 hPa 0,0 l/m 1,6 km/h (1 Bft) 0 min 0 min 5,2 km/h (1 Bft)
19.04.2012 20:26 17,8 C 12,4 C 0,0 UV-I 0,0 C 42 % 63 % 0 % 991,4 hPa 0,0 l/m 1,2 km/h (1 Bft) 0 min 0 min 7,2 km/h (2 Bft)
19.04.2012 20:28 17,8 C 12,4 C 0,0 UV-I 0,0 C 42 % 63 % 0 % 991,4 hPa 0,0 l/m 1,6 km/h (1 Bft) 0 min 0 min 7,2 km/h (2 Bft)
19.04.2012 20:30 17,8 C 12,4 C 0,0 UV-I 0,0 C 42 % 63 % 0 % 991,4 hPa 0,0 l/m 2,0 km/h (1 Bft) 0 min 0 min 8,0 km/h (2 Bft)
19.04.2012 20:32 17,8 C 12,3 C 0,0 UV-I 0,0 C 42 % 64 % 0 % 991,4 hPa 0,0 l/m 2,4 km/h (1 Bft) 0 min 0 min 8,0 km/h (2 Bft)
19.04.2012 20:34 17,7 C 12,2 C 0,0 UV-I 0,0 C 42 % 64 % 0 % 991,4 hPa 0,0 l/m 3,2 km/h (1 Bft) 0 min 0 min 8,0 km/h (2 Bft)
19.04.2012 20:36 17,7 C 12,3 C 0,0 UV-I 0,0 C 42 % 64 % 0 % 991,4 hPa 0,0 l/m 3,6 km/h (1 Bft) 0 min 0 min 7,2 km/h (2 Bft)
19.04.2012 20:38 17,7 C 12,1 C 0,0 UV-I 0,0 C 42 % 64 % 0 % 991,4 hPa 0,0 l/m 4,4 km/h (1 Bft) 0 min 0 min 11,2 km/h (2 Bft)
19.04.2012 20:40 17,6 C 12,1 C 0,0 UV-I 0,0 C 42 % 64 % 0 % 991,4 hPa 0,0 l/m 5,2 km/h (1 Bft) 0 min 0 min 11,2 km/h (2 Bft)
19.04.2012 20:42 17,7 C 12,0 C 0,0 UV-I 0,0 C 42 % 65 % 0 % 991,4 hPa 0,0 l/m 6,4 km/h (2 Bft) 0 min 0 min 12,0 km/h (2 Bft)
19.04.2012 20:44 17,6 C 12,0 C 0,0 UV-I 0,0 C 42 % 65 % 0 % 991,7 hPa 0,0 l/m 6,8 km/h (2 Bft) 0 min 0 min 12,0 km/h (2 Bft)
19.04.2012 20:46 17,6 C 11,9 C 0,0 UV-I 0,0 C 42 % 65 % 0 % 991,7 hPa 0,0 l/m 6,8 km/h (2 Bft) 0 min 0 min 8,0 km/h (2 Bft)
19.04.2012 20:48 17,6 C 11,8 C 0,0 UV-I 0,0 C 42 % 65 % 0 % 991,7 hPa 0,0 l/m 6,4 km/h (2 Bft) 0 min 0 min 5,6 km/h (1 Bft)
19.04.2012 20:50 17,6 C 11,9 C 0,0 UV-I 0,0 C 42 % 66 % 0 % 991,7 hPa 0,0 l/m 6,0 km/h (2 Bft) 0 min 0 min 6,8 km/h (2 Bft)
19.04.2012 20:52 17,6 C 11,7 C 0,0 UV-I 0,0 C 42 % 66 % 0 % 991,7 hPa 0,0 l/m 6,4 km/h (2 Bft) 0 min 0 min 12,0 km/h (2 Bft)
19.04.2012 20:54 17,5 C 11,6 C 0,0 UV-I 0,0 C 43 % 66 % 0 % 991,7 hPa 0,0 l/m 6,8 km/h (2 Bft) 0 min 0 min 12,0 km/h (2 Bft)
19.04.2012 20:56 17,5 C 11,6 C 0,0 UV-I 0,0 C 43 % 66 % 0 % 991,7 hPa 0,0 l/m 6,8 km/h (2 Bft) 0 min 0 min 10,4 km/h (2 Bft)
19.04.2012 20:58 17,5 C 11,5 C 0,0 UV-I 0,0 C 43 % 67 % 0 % 991,7 hPa 0,0 l/m 6,8 km/h (2 Bft) 0 min 0 min 9,6 km/h (2 Bft)
19.04.2012 21:00 17,5 C 11,4 C 0,0 UV-I 0,0 C 43 % 67 % 0 % 991,7 hPa 0,0 l/m 6,8 km/h (2 Bft) 0 min 0 min 8,0 km/h (2 Bft)
19.04.2012 21:02 17,4 C 11,3 C 0,0 UV-I 0,0 C 43 % 68 % 0 % 991,7 hPa 0,0 l/m 7,6 km/h (2 Bft) 0 min 0 min 14,1 km/h (3 Bft)
19.04.2012 21:04 17,4 C 11,2 C 0,0 UV-I 0,0 C 43 % 68 % 0 % 991,8 hPa 0,0 l/m 6,8 km/h (2 Bft) 0 min 0 min 13,3 km/h (3 Bft)
19.04.2012 21:06 17,4 C 11,2 C 0,0 UV-I 0,0 C 43 % 69 % 0 % 991,8 hPa 0,0 l/m 6,8 km/h (2 Bft) 0 min 0 min 13,3 km/h (3 Bft)
19.04.2012 21:08 17,4 C 11,1 C 0,0 UV-I 0,0 C 43 % 69 % 0 % 991,8 hPa 0,0 l/m 6,4 km/h (2 Bft) 0 min 0 min 10,8 km/h (2 Bft)
19.04.2012 21:10 17,2 C 11,1 C 0,0 UV-I 0,0 C 43 % 70 % 0 % 991,8 hPa 0,0 l/m 6,8 km/h (2 Bft) 0 min 0 min 9,6 km/h (2 Bft)
19.04.2012 21:12 17,2 C 10,9 C 0,0 UV-I 0,0 C 43 % 70 % 0 % 991,8 hPa 0,0 l/m 6,4 km/h (2 Bft) 0 min 0 min 7,2 km/h (2 Bft)
19.04.2012 21:14 17,2 C 10,8 C 0,0 UV-I 0,0 C 44 % 70 % 0 % 991,8 hPa 0,0 l/m 5,6 km/h (1 Bft) 0 min 0 min 4,4 km/h (1 Bft)
19.04.2012 21:16 17,2 C 10,8 C 0,0 UV-I 0,0 C 44 % 71 % 0 % 991,8 hPa 0,0 l/m 4,8 km/h (1 Bft) 0 min 0 min 5,6 km/h (1 Bft)
19.04.2012 21:18 17,3 C 10,7 C 0,0 UV-I 0,0 C 44 % 70 % 0 % 991,8 hPa 0,0 l/m 4,0 km/h (1 Bft) 0 min 0 min 5,6 km/h (1 Bft)
19.04.2012 21:20 17,3 C 10,7 C 0,0 UV-I 0,0 C 44 % 70 % 0 % 991,8 hPa 0,0 l/m 3,6 km/h (1 Bft) 0 min 0 min 0,0 km/h (0 Bft)
19.04.2012 21:22 17,3 C 10,6 C 0,0 UV-I 0,0 C 44 % 70 % 0 % 991,8 hPa 0,0 l/m 2,8 km/h (1 Bft) 0 min 0 min 0,0 km/h (0 Bft)
19.04.2012 21:24 17,2 C 10,5 C 0,0 UV-I 0,0 C 44 % 71 % 0 % 991,8 hPa 0,0 l/m 1,6 km/h (1 Bft) 0 min 0 min 0,0 km/h (0 Bft)
19.04.2012 21:26 17,2 C 10,4 C 0,0 UV-I 0,0 C 44 % 71 % 0 % 991,8 hPa 0,0 l/m 1,2 km/h (1 Bft) 0 min 0 min 4,4 km/h (1 Bft)
19.04.2012 21:28 17,2 C 10,4 C 0,0 UV-I 0,0 C 44 % 71 % 0 % 991,8 hPa 0,0 l/m 0,8 km/h (0 Bft) 0 min 0 min 4,4 km/h (1 Bft)
19.04.2012 21:30 17,2 C 10,4 C 0,0 UV-I 0,0 C 44 % 72 % 0 % 991,8 hPa 0,0 l/m 0,8 km/h (0 Bft) 0 min 0 min 4,8 km/h (1 Bft)
19.04.2012 21:32 17,2 C 10,4 C 0,0 UV-I 0,0 C 44 % 72 % 0 % 991,8 hPa 0,0 l/m 0,8 km/h (0 Bft) 0 min 0 min 4,8 km/h (1 Bft)
19.04.2012 21:34 17,2 C 10,3 C 0,0 UV-I 0,0 C 44 % 72 % 0 % 991,8 hPa 0,0 l/m 0,8 km/h (0 Bft) 0 min 0 min 4,8 km/h (1 Bft)
19.04.2012 21:36 17,2 C 10,3 C 0,0 UV-I 0,0 C 44 % 72 % 0 % 991,8 hPa 0,0 l/m 1,2 km/h (1 Bft) 0 min 0 min 4,8 km/h (1 Bft)
19.04.2012 21:38 17,2 C 10,2 C 0,0 UV-I 0,0 C 44 % 72 % 0 % 991,8 hPa 0,0 l/m 0,8 km/h (0 Bft) 0 min 0 min 4,4 km/h (1 Bft)
19.04.2012 21:40 17,1 C 10,1 C 0,0 UV-I 0,0 C 45 % 72 % 0 % 991,8 hPa 0,0 l/m 1,2 km/h (1 Bft) 0 min 0 min 0,0 km/h (0 Bft)
19.04.2012 21:42 17,1 C 10,0 C 0,0 UV-I 0,0 C 45 % 73 % 0 % 991,8 hPa 0,0 l/m 1,2 km/h (1 Bft) 0 min 0 min 0,0 km/h (0 Bft)
19.04.2012 21:44 17,1 C 10,1 C 0,0 UV-I 0,0 C 45 % 73 % 0 % 992,2 hPa 0,0 l/m 0,8 km/h (0 Bft) 0 min 0 min 0,0 km/h (0 Bft)
19.04.2012 21:46 17,1 C 10,0 C 0,0 UV-I 0,0 C 45 % 73 % 0 % 992,2 hPa 0,0 l/m 0,8 km/h (0 Bft) 0 min 0 min 0,0 km/h (0 Bft)
19.04.2012 21:48 17,1 C 9,9 C 0,0 UV-I 0,0 C 45 % 73 % 0 % 992,2 hPa 0,0 l/m 0,4 km/h (0 Bft) 0 min 0 min 0,0 km/h (0 Bft)
19.04.2012 21:50 17,1 C 9,9 C 0,0 UV-I 0,0 C 45 % 73 % 0 % 992,2 hPa 0,0 l/m 0,4 km/h (0 Bft) 0 min 0 min 0,0 km/h (0 Bft)
19.04.2012 21:52 17,0 C 9,7 C 0,0 UV-I 0,0 C 45 % 74 % 0 % 992,2 hPa 0,0 l/m 0,4 km/h (0 Bft) 0 min 0 min 0,0 km/h (0 Bft)
19.04.2012 21:54 17,0 C 9,7 C 0,0 UV-I 0,0 C 45 % 73 % 0 % 992,2 hPa 0,0 l/m 0,0 km/h (0 Bft) 0 min 0 min 0,0 km/h (0 Bft)
19.04.2012 21:56 17,0 C 9,6 C 0,0 UV-I 0,0 C 45 % 74 % 0 % 992,2 hPa 0,0 l/m 0,0 km/h (0 Bft) 0 min 0 min 0,0 km/h (0 Bft)
19.04.2012 21:58 17,0 C 9,6 C 0,0 UV-I 0,0 C 45 % 74 % 0 % 992,2 hPa 0,0 l/m 0,4 km/h (0 Bft) 0 min 0 min 0,0 km/h (0 Bft)
19.04.2012 22:00 17,0 C 9,5 C 0,0 UV-I 0,0 C 45 % 74 % 0 % 992,2 hPa 0,0 l/m 0,4 km/h (0 Bft) 0 min 0 min 0,0 km/h (0 Bft)
19.04.2012 22:02 17,0 C 9,4 C 0,0 UV-I 0,0 C 45 % 74 % 0 % 992,2 hPa 0,0 l/m 0,4 km/h (0 Bft) 0 min 0 min 0,0 km/h (0 Bft)
19.04.2012 22:04 16,9 C 9,5 C 0,0 UV-I 0,0 C 45 % 74 % 0 % 992,2 hPa 0,0 l/m 0,0 km/h (0 Bft) 0 min 0 min 0,0 km/h (0 Bft)
19.04.2012 22:06 16,9 C 9,5 C 0,0 UV-I 0,0 C 45 % 74 % 0 % 992,2 hPa 0,0 l/m 0,0 km/h (0 Bft) 0 min 0 min 0,0 km/h (0 Bft)
19.04.2012 22:08 16,9 C 9,3 C 0,0 UV-I 0,0 C 45 % 75 % 0 % 992,2 hPa 0,0 l/m 0,0 km/h (0 Bft) 0 min 0 min 0,0 km/h (0 Bft)
19.04.2012 22:10 16,9 C 9,2 C 0,0 UV-I 0,0 C 45 % 75 % 0 % 992,2 hPa 0,0 l/m 0,0 km/h (0 Bft) 0 min 0 min 0,0 km/h (0 Bft)
19.04.2012 22:12 16,9 C 9,2 C 0,0 UV-I 0,0 C 45 % 75 % 0 % 992,2 hPa 0,0 l/m 0,0 km/h (0 Bft) 0 min 0 min 0,0 km/h (0 Bft)
19.04.2012 22:14 16,8 C 9,1 C 0,0 UV-I 0,0 C 46 % 75 % 0 % 992,2 hPa 0,0 l/m 0,0 km/h (0 Bft) 0 min 0 min 0,0 km/h (0 Bft)
19.04.2012 22:16 16,8 C 9,1 C 0,0 UV-I 0,0 C 46 % 75 % 0 % 992,2 hPa 0,0 l/m 0,0 km/h (0 Bft) 0 min 0 min 0,0 km/h (0 Bft)
19.04.2012 22:18 16,8 C 9,1 C 0,0 UV-I 0,0 C 46 % 75 % 0 % 992,2 hPa 0,0 l/m 0,0 km/h (0 Bft) 0 min 0 min 0,0 km/h (0 Bft)
19.04.2012 22:20 16,8 C 9,0 C 0,0 UV-I 0,0 C 46 % 75 % 0 % 992,2 hPa 0,0 l/m 0,0 km/h (0 Bft) 0 min 0 min 0,0 km/h (0 Bft)
19.04.2012 22:22 16,8 C 8,9 C 0,0 UV-I 0,0 C 46 % 75 % 0 % 992,2 hPa 0,0 l/m 0,0 km/h (0 Bft) 0 min 0 min 0,0 km/h (0 Bft)
19.04.2012 22:24 16,8 C 8,8 C 0,0 UV-I 0,0 C 46 % 76 % 0 % 992,4 hPa 0,0 l/m 0,0 km/h (0 Bft) 0 min 0 min 0,0 km/h (0 Bft)
19.04.2012 22:26 16,8 C 8,9 C 0,0 UV-I 0,0 C 46 % 76 % 0 % 992,4 hPa 0,0 l/m 0,0 km/h (0 Bft) 0 min 0 min 0,0 km/h (0 Bft)
19.04.2012 22:28 16,8 C 8,7 C 0,0 UV-I 0,0 C 46 % 76 % 0 % 992,4 hPa 0,0 l/m 0,0 km/h (0 Bft) 0 min 0 min 0,0 km/h (0 Bft)
19.04.2012 22:30 16,8 C 8,7 C 0,0 UV-I 0,0 C 46 % 76 % 0 % 992,4 hPa 0,0 l/m 0,0 km/h (0 Bft) 0 min 0 min 0,0 km/h (0 Bft)
19.04.2012 22:32 16,8 C 8,7 C 0,0 UV-I 0,0 C 46 % 77 % 0 % 992,4 hPa 0,0 l/m 0,0 km/h (0 Bft) 0 min 0 min 0,0 km/h (0 Bft)
19.04.2012 22:34 16,8 C 8,7 C 0,0 UV-I 0,0 C 46 % 77 % 0 % 992,4 hPa 0,0 l/m 0,0 km/h (0 Bft) 0 min 0 min 0,0 km/h (0 Bft)
19.04.2012 22:36 16,7 C 8,6 C 0,0 UV-I 0,0 C 46 % 77 % 0 % 992,4 hPa 0,0 l/m 0,0 km/h (0 Bft) 0 min 0 min 0,0 km/h (0 Bft)
19.04.2012 22:38 16,7 C 8,5 C 0,0 UV-I 0,0 C 46 % 77 % 0 % 992,4 hPa 0,0 l/m 0,0 km/h (0 Bft) 0 min 0 min 0,0 km/h (0 Bft)
19.04.2012 22:40 16,7 C 8,4 C 0,0 UV-I 0,0 C 46 % 77 % 0 % 992,4 hPa 0,0 l/m 0,0 km/h (0 Bft) 0 min 0 min 0,0 km/h (0 Bft)
19.04.2012 22:42 16,7 C 8,5 C 0,0 UV-I 0,0 C 46 % 77 % 0 % 992,4 hPa 0,0 l/m 0,0 km/h (0 Bft) 0 min 0 min 0,0 km/h (0 Bft)
19.04.2012 22:44 16,6 C 8,4 C 0,0 UV-I 0,0 C 46 % 77 % 0 % 992,5 hPa 0,0 l/m 0,0 km/h (0 Bft) 0 min 0 min 0,0 km/h (0 Bft)
19.04.2012 22:46 16,6 C 8,3 C 0,0 UV-I 0,0 C 46 % 77 % 0 % 992,5 hPa 0,0 l/m 0,0 km/h (0 Bft) 0 min 0 min 0,0 km/h (0 Bft)
19.04.2012 22:48 16,6 C 8,2 C 0,0 UV-I 0,0 C 46 % 78 % 0 % 992,5 hPa 0,0 l/m 0,0 km/h (0 Bft) 0 min 0 min 0,0 km/h (0 Bft)
19.04.2012 22:50 16,6 C 8,3 C 0,0 UV-I 0,0 C 46 % 78 % 0 % 992,5 hPa 0,0 l/m 0,0 km/h (0 Bft) 0 min 0 min 0,0 km/h (0 Bft)
19.04.2012 22:52 16,6 C 8,1 C 0,0 UV-I 0,0 C 47 % 78 % 0 % 992,5 hPa 0,0 l/m 0,0 km/h (0 Bft) 0 min 0 min 0,0 km/h (0 Bft)
19.04.2012 22:54 16,6 C 8,1 C 0,0 UV-I 0,0 C 47 % 78 % 0 % 992,5 hPa 0,0 l/m 0,0 km/h (0 Bft) 0 min 0 min 0,0 km/h (0 Bft)
19.04.2012 22:56 16,5 C 8,0 C 0,0 UV-I 0,0 C 47 % 78 % 0 % 992,5 hPa 0,0 l/m 0,0 km/h (0 Bft) 0 min 0 min 0,0 km/h (0 Bft)
19.04.2012 22:58 16,5 C 8,1 C 0,0 UV-I 0,0 C 47 % 78 % 0 % 992,5 hPa 0,0 l/m 0,0 km/h (0 Bft) 0 min 0 min 0,0 km/h (0 Bft)
19.04.2012 23:00 16,5 C 8,0 C 0,0 UV-I 0,0 C 47 % 78 % 0 % 992,5 hPa 0,0 l/m 0,0 km/h (0 Bft) 0 min 0 min 0,0 km/h (0 Bft)
19.04.2012 23:02 16,5 C 7,9 C 0,0 UV-I 0,0 C 47 % 79 % 0 % 992,5 hPa 0,0 l/m 0,0 km/h (0 Bft) 0 min 0 min 0,0 km/h (0 Bft)
19.04.2012 23:04 16,5 C 7,8 C 0,0 UV-I 0,0 C 47 % 79 % 0 % 992,5 hPa 0,0 l/m 0,0 km/h (0 Bft) 0 min 0 min 0,0 km/h (0 Bft)
19.04.2012 23:06 16,4 C 7,9 C 0,0 UV-I 0,0 C 47 % 79 % 0 % 992,5 hPa 0,0 l/m 0,0 km/h (0 Bft) 0 min 0 min 0,0 km/h (0 Bft)
19.04.2012 23:08 16,4 C 7,9 C 0,0 UV-I 0,0 C 47 % 79 % 0 % 992,5 hPa 0,0 l/m 0,0 km/h (0 Bft) 0 min 0 min 0,0 km/h (0 Bft)
19.04.2012 23:10 16,4 C 7,8 C 0,0 UV-I 0,0 C 47 % 80 % 0 % 992,5 hPa 0,0 l/m 0,4 km/h (0 Bft) 0 min 0 min 4,4 km/h (1 Bft)
19.04.2012 23:12 16,4 C 7,7 C 0,0 UV-I 0,0 C 47 % 80 % 0 % 992,5 hPa 0,0 l/m 0,4 km/h (0 Bft) 0 min 0 min 4,4 km/h (1 Bft)
19.04.2012 23:14 16,4 C 7,7 C 0,0 UV-I 0,0 C 47 % 80 % 0 % 992,5 hPa 0,0 l/m 0,4 km/h (0 Bft) 0 min 0 min 0,0 km/h (0 Bft)
19.04.2012 23:16 16,4 C 7,7 C 0,0 UV-I 0,0 C 47 % 81 % 0 % 992,5 hPa 0,0 l/m 0,8 km/h (0 Bft) 0 min 0 min 5,2 km/h (1 Bft)
19.04.2012 23:18 16,4 C 7,7 C 0,0 UV-I 0,0 C 47 % 81 % 0 % 992,5 hPa 0,0 l/m 0,8 km/h (0 Bft) 0 min 0 min 5,2 km/h (1 Bft)
19.04.2012 23:20 16,4 C 7,7 C 0,0 UV-I 0,0 C 47 % 81 % 0 % 992,5 hPa 0,0 l/m 1,2 km/h (1 Bft) 0 min 0 min 5,2 km/h (1 Bft)
19.04.2012 23:22 16,4 C 7,7 C 0,0 UV-I 0,0 C 47 % 81 % 0 % 992,5 hPa 0,0 l/m 1,2 km/h (1 Bft) 0 min 0 min 6,0 km/h (2 Bft)
19.04.2012 23:24 16,4 C 7,7 C 0,0 UV-I 0,0 C 47 % 81 % 0 % 992,8 hPa 0,0 l/m 1,2 km/h (1 Bft) 0 min 0 min 6,0 km/h (2 Bft)
19.04.2012 23:26 16,4 C 7,7 C 0,0 UV-I 0,0 C 47 % 81 % 0 % 992,8 hPa 0,0 l/m 1,6 km/h (1 Bft) 0 min 0 min 4,8 km/h (1 Bft)
19.04.2012 23:28 16,4 C 7,7 C 0,0 UV-I 0,0 C 47 % 82 % 0 % 992,8 hPa 0,0 l/m 1,6 km/h (1 Bft) 0 min 0 min 6,0 km/h (2 Bft)
19.04.2012 23:30 16,3 C 7,7 C 0,0 UV-I 0,0 C 48 % 82 % 0 % 992,8 hPa 0,0 l/m 1,2 km/h (1 Bft) 0 min 0 min 6,0 km/h (2 Bft)
19.04.2012 23:32 16,3 C 7,7 C 0,0 UV-I 0,0 C 48 % 82 % 0 % 992,8 hPa 0,0 l/m 1,6 km/h (1 Bft) 0 min 0 min 5,6 km/h (1 Bft)
19.04.2012 23:34 16,3 C 7,7 C 0,0 UV-I 0,0 C 47 % 82 % 0 % 992,8 hPa 0,0 l/m 1,6 km/h (1 Bft) 0 min 0 min 5,6 km/h (1 Bft)
19.04.2012 23:36 16,3 C 7,7 C 0,0 UV-I 0,0 C 48 % 82 % 0 % 992,8 hPa 0,0 l/m 1,6 km/h (1 Bft) 0 min 0 min 4,0 km/h (1 Bft)
19.04.2012 23:38 16,3 C 7,7 C 0,0 UV-I 0,0 C 48 % 82 % 0 % 992,8 hPa 0,0 l/m 1,6 km/h (1 Bft) 0 min 0 min 4,0 km/h (1 Bft)
19.04.2012 23:40 16,3 C 7,7 C 0,0 UV-I 0,0 C 48 % 82 % 0 % 992,8 hPa 0,0 l/m 1,6 km/h (1 Bft) 0 min 0 min 5,2 km/h (1 Bft)
19.04.2012 23:42 16,3 C 7,6 C 0,0 UV-I 0,0 C 48 % 82 % 0 % 992,8 hPa 0,0 l/m 1,2 km/h (1 Bft) 0 min 0 min 5,2 km/h (1 Bft)
19.04.2012 23:44 16,3 C 7,7 C 0,0 UV-I 0,0 C 48 % 83 % 0 % 992,7 hPa 0,0 l/m 1,2 km/h (1 Bft) 0 min 0 min 4,4 km/h (1 Bft)
19.04.2012 23:46 16,2 C 7,6 C 0,0 UV-I 0,0 C 48 % 83 % 0 % 992,7 hPa 0,0 l/m 1,2 km/h (1 Bft) 0 min 0 min 4,4 km/h (1 Bft)
19.04.2012 23:48 16,2 C 7,6 C 0,0 UV-I 0,0 C 48 % 83 % 0 % 992,7 hPa 0,0 l/m 1,2 km/h (1 Bft) 0 min 0 min 4,4 km/h (1 Bft)
19.04.2012 23:50 16,2 C 7,6 C 0,0 UV-I 0,0 C 48 % 83 % 0 % 992,7 hPa 0,0 l/m 1,2 km/h (1 Bft) 0 min 0 min 4,4 km/h (1 Bft)
19.04.2012 23:52 16,2 C 7,6 C 0,0 UV-I 0,0 C 48 % 83 % 0 % 992,7 hPa 0,0 l/m 1,2 km/h (1 Bft) 0 min 0 min 0,0 km/h (0 Bft)
19.04.2012 23:54 16,2 C 7,6 C 0,0 UV-I 0,0 C 48 % 83 % 0 % 992,7 hPa 0,0 l/m 1,6 km/h (1 Bft) 0 min 0 min 4,0 km/h (1 Bft)
19.04.2012 23:56 16,2 C 7,6 C 0,0 UV-I 0,0 C 48 % 83 % 0 % 992,7 hPa 0,0 l/m 1,6 km/h (1 Bft) 0 min 0 min 4,4 km/h (1 Bft)
19.04.2012 23:58 16,2 C 7,5 C 0,0 UV-I 0,0 C 48 % 83 % 0 % 992,7 hPa 0,0 l/m 1,6 km/h (1 Bft) 0 min 0 min 4,4 km/h (1 Bft)
_ Min-Zeit 06:46 23:58 00:00 00:00 17:00 15:12 00:00 04:44 - 21:54 - - 15:04
Minimum _ 15,3 C 7,5 C 0,0 UV-I 0,0 C 39 % 50 % 0 % 987,0 hPa - 0,0 km/h (0 Bft) - - 0,0 km/h (0 Bft)
_ Max-Zeit 17:28 17:20 11:00 13:10 06:36 06:34 09:50 23:24 05:50 00:22 09:45 00:14 00:48
Maximum _ 19,5 C 15,2 C 4,1 UV-I 6,2 C 51 % 84 % 100 % 992,8 hPa 0,1 l/m 14,5 km/h
O (3 Bft)
2 min 2 min 42,6 km/h
W-SW (6 Bft)
Durchschnitt _ 16,6 C 11,1 C 0,6 UV-I 1,2 C 46 % 70 % 31 % 989,9 hPa #0,2 l/m 7,1 km/h (2 Bft) #4:46 h #46 min. 12,6 km/h (3 Bft)
© 2012 W. Hausmann